<?xml version="1.0" encoding="UTF-8" ?>
<gpx version="1.1" creator="CartoExploreur 3 3.24" xmlns:xsi="http://www.w3.org/2001/XMLSchema-instance" xmlns="http://www.topografix.com/GPX/1/1" xsi:schemaLocation="http://www.topografix.com/GPX/1/1 http://www.topografix.com/GPX/1/1/gpx.xsd">
    <metadata>
        <time>2017-12-12T16:29:38Z</time>
        <bounds maxlat="47.441992806" maxlon="5.004826840" minlat="47.404910196" minlon="4.948793912" />
    </metadata>
    <trk>
        <name>Les balcons du Suzon</name>
        <trkseg>
            <trkpt lat="47.408407185" lon="5.004761259">
                <ele>298.163635</ele>
                <time>2017-04-13T06:40:23Z</time>
            </trkpt>
            <trkpt lat="47.408502996" lon="5.004826840">
                <ele>298.639832</ele>
                <time>2017-04-13T06:40:23Z</time>
            </trkpt>
            <trkpt lat="47.408637693" lon="5.004761880">
                <ele>299.365173</ele>
            </trkpt>
            <trkpt lat="47.408831734" lon="5.004668338">
                <ele>300.536285</ele>
            </trkpt>
            <trkpt lat="47.409121748" lon="5.004511094">
                <ele>304.489594</ele>
            </trkpt>
            <trkpt lat="47.409253931" lon="5.004439680">
                <ele>306.389893</ele>
                <time>2017-04-13T06:40:23Z</time>
            </trkpt>
            <trkpt lat="47.409309670" lon="5.004338259">
                <ele>307.202179</ele>
                <time>2017-04-13T06:40:23Z</time>
            </trkpt>
            <trkpt lat="47.409377899" lon="5.004143380">
                <ele>307.846802</ele>
                <time>2017-04-13T06:40:23Z</time>
            </trkpt>
            <trkpt lat="47.409449732" lon="5.003959062">
                <ele>308.596069</ele>
                <time>2017-04-13T06:40:23Z</time>
            </trkpt>
            <trkpt lat="47.409553919" lon="5.003706934">
                <ele>309.832764</ele>
                <time>2017-04-13T06:40:23Z</time>
            </trkpt>
            <trkpt lat="47.409676127" lon="5.003496464">
                <ele>311.406525</ele>
                <time>2017-04-13T06:40:23Z</time>
            </trkpt>
            <trkpt lat="47.409762377" lon="5.003337963">
                <ele>312.615051</ele>
            </trkpt>
            <trkpt lat="47.409879137" lon="5.003158674">
                <ele>314.546722</ele>
            </trkpt>
            <trkpt lat="47.409999501" lon="5.003007883">
                <ele>317.073944</ele>
            </trkpt>
            <trkpt lat="47.410067730" lon="5.002898751">
                <ele>319.106079</ele>
            </trkpt>
            <trkpt lat="47.409979720" lon="5.002701273">
                <ele>318.595032</ele>
            </trkpt>
            <trkpt lat="47.409915011" lon="5.002519386">
                <ele>318.069580</ele>
                <time>2017-04-13T06:40:23Z</time>
            </trkpt>
            <trkpt lat="47.409857595" lon="5.002267258">
                <ele>317.918335</ele>
            </trkpt>
            <trkpt lat="47.409786265" lon="5.002033571">
                <ele>317.168884</ele>
            </trkpt>
            <trkpt lat="47.409747206" lon="5.001960900">
                <ele>316.543243</ele>
            </trkpt>
            <trkpt lat="47.409698674" lon="5.001797201">
                <ele>315.910614</ele>
            </trkpt>
            <trkpt lat="47.409624998" lon="5.001571057">
                <ele>314.277405</ele>
            </trkpt>
            <trkpt lat="47.409592643" lon="5.001422949">
                <ele>313.407990</ele>
            </trkpt>
            <trkpt lat="47.409556769" lon="5.001176102">
                <ele>312.352692</ele>
                <time>2017-04-13T06:40:23Z</time>
            </trkpt>
            <trkpt lat="47.409542352" lon="5.000937050">
                <ele>311.714996</ele>
                <time>2017-04-13T06:40:23Z</time>
            </trkpt>
            <trkpt lat="47.409531623" lon="5.000752481">
                <ele>311.119995</ele>
                <time>2017-04-13T06:40:23Z</time>
            </trkpt>
            <trkpt lat="47.409502035" lon="5.000453247">
                <ele>309.760010</ele>
                <time>2017-04-13T06:40:23Z</time>
            </trkpt>
            <trkpt lat="47.409481248" lon="5.000173040">
                <ele>309.535583</ele>
                <time>2017-04-13T06:40:23Z</time>
            </trkpt>
            <trkpt lat="47.409463311" lon="4.999978160">
                <ele>309.464935</ele>
                <time>2017-04-13T06:40:23Z</time>
            </trkpt>
            <trkpt lat="47.409617789" lon="4.999863748">
                <ele>314.869904</ele>
                <time>2017-04-13T06:40:23Z</time>
            </trkpt>
            <trkpt lat="47.409590883" lon="4.999749418">
                <ele>314.136902</ele>
                <time>2017-04-13T06:40:23Z</time>
            </trkpt>
            <trkpt lat="47.409576969" lon="4.999552192">
                <ele>314.735016</ele>
                <time>2017-04-13T06:40:23Z</time>
            </trkpt>
            <trkpt lat="47.409557272" lon="4.999352116">
                <ele>315.165009</ele>
                <time>2017-04-13T06:40:23Z</time>
            </trkpt>
            <trkpt lat="47.409575209" lon="4.999235189">
                <ele>316.364990</ele>
                <time>2017-04-13T06:40:23Z</time>
            </trkpt>
            <trkpt lat="47.409576969" lon="4.999107867">
                <ele>317.135010</ele>
                <time>2017-04-13T06:40:23Z</time>
            </trkpt>
            <trkpt lat="47.409541095" lon="4.998915587">
                <ele>317.476135</ele>
                <time>2017-04-13T06:40:23Z</time>
            </trkpt>
            <trkpt lat="47.409546459" lon="4.998650467">
                <ele>319.744507</ele>
            </trkpt>
            <trkpt lat="47.409569845" lon="4.998424407">
                <ele>322.512665</ele>
            </trkpt>
            <trkpt lat="47.409614772" lon="4.998091813">
                <ele>326.438202</ele>
            </trkpt>
            <trkpt lat="47.409672188" lon="4.997824095">
                <ele>330.973450</ele>
            </trkpt>
            <trkpt lat="47.409701021" lon="4.997639777">
                <ele>333.807251</ele>
                <time>2017-04-13T06:40:23Z</time>
            </trkpt>
            <trkpt lat="47.409740500" lon="4.997398127">
                <ele>337.829865</ele>
                <time>2017-04-13T06:40:23Z</time>
            </trkpt>
            <trkpt lat="47.409785427" lon="4.997151196">
                <ele>342.452362</ele>
                <time>2017-04-13T06:40:23Z</time>
            </trkpt>
            <trkpt lat="47.409830354" lon="4.996893955">
                <ele>347.025635</ele>
                <time>2017-04-13T06:40:23Z</time>
            </trkpt>
            <trkpt lat="47.409868073" lon="4.996667895">
                <ele>350.646881</ele>
            </trkpt>
            <trkpt lat="47.409904031" lon="4.996447032">
                <ele>354.182281</ele>
            </trkpt>
            <trkpt lat="47.409941750" lon="4.996228684">
                <ele>356.052948</ele>
                <time>2017-04-13T06:40:23Z</time>
            </trkpt>
            <trkpt lat="47.410004614" lon="4.995953254">
                <ele>359.546448</ele>
                <time>2017-04-13T06:40:23Z</time>
            </trkpt>
            <trkpt lat="47.410056749" lon="4.995846720">
                <ele>362.534454</ele>
                <time>2017-04-13T06:40:23Z</time>
            </trkpt>
            <trkpt lat="47.410067394" lon="4.995625941">
                <ele>359.779358</ele>
                <time>2017-04-13T06:40:23Z</time>
            </trkpt>
            <trkpt lat="47.410130342" lon="4.995464841">
                <ele>360.048401</ele>
                <time>2017-04-13T06:40:23Z</time>
            </trkpt>
            <trkpt lat="47.410193207" lon="4.995371299">
                <ele>361.643768</ele>
                <time>2017-04-13T06:40:23Z</time>
            </trkpt>
            <trkpt lat="47.410257831" lon="4.995301142">
                <ele>363.755981</ele>
                <time>2017-04-13T06:40:23Z</time>
            </trkpt>
            <trkpt lat="47.410353133" lon="4.995332323">
                <ele>369.792358</ele>
                <time>2017-04-13T06:40:23Z</time>
            </trkpt>
            <trkpt lat="47.410326144" lon="4.995480431">
                <ele>371.617249</ele>
                <time>2017-04-13T06:40:23Z</time>
            </trkpt>
            <trkpt lat="47.410275852" lon="4.995644130">
                <ele>372.260803</ele>
                <time>2017-04-13T06:40:23Z</time>
            </trkpt>
            <trkpt lat="47.410272248" lon="4.995729877">
                <ele>373.883118</ele>
                <time>2017-04-13T06:40:23Z</time>
            </trkpt>
            <trkpt lat="47.410421362" lon="4.995800033">
                <ele>383.613556</ele>
                <time>2017-04-13T06:40:23Z</time>
            </trkpt>
            <trkpt lat="47.410559664" lon="4.995818222">
                <ele>389.882111</ele>
                <time>2017-04-13T06:40:23Z</time>
            </trkpt>
            <trkpt lat="47.410650942" lon="4.995857198">
                <ele>393.862488</ele>
                <time>2017-04-13T06:40:23Z</time>
            </trkpt>
            <trkpt lat="47.410852192" lon="4.995755861">
                <ele>401.211761</ele>
                <time>2017-04-13T06:40:23Z</time>
            </trkpt>
            <trkpt lat="47.411096524" lon="4.995628456">
                <ele>406.602661</ele>
                <time>2017-04-13T06:40:23Z</time>
            </trkpt>
            <trkpt lat="47.411234826" lon="4.995560898">
                <ele>410.685303</ele>
                <time>2017-04-13T06:40:23Z</time>
            </trkpt>
            <trkpt lat="47.411378575" lon="4.995480347">
                <ele>414.460419</ele>
                <time>2017-04-13T06:40:23Z</time>
            </trkpt>
            <trkpt lat="47.411450408" lon="4.995199721">
                <ele>416.409607</ele>
                <time>2017-04-13T06:40:23Z</time>
            </trkpt>
            <trkpt lat="47.411523918" lon="4.994906271">
                <ele>418.790009</ele>
                <time>2017-04-13T06:40:23Z</time>
            </trkpt>
            <trkpt lat="47.411579825" lon="4.994731508">
                <ele>420.867889</ele>
                <time>2017-04-13T06:40:23Z</time>
            </trkpt>
            <trkpt lat="47.411658447" lon="4.994495055">
                <ele>424.048065</ele>
                <time>2017-04-13T06:40:23Z</time>
            </trkpt>
            <trkpt lat="47.411638917" lon="4.994508717">
                <ele>423.282227</ele>
                <time>2017-04-13T06:40:23Z</time>
            </trkpt>
            <trkpt lat="47.411682084" lon="4.994318951">
                <ele>424.659027</ele>
                <time>2017-04-13T06:40:23Z</time>
            </trkpt>
            <trkpt lat="47.411773698" lon="4.993999349">
                <ele>428.825012</ele>
                <time>2017-04-13T06:40:23Z</time>
            </trkpt>
            <trkpt lat="47.411858104" lon="4.993679747">
                <ele>427.149170</ele>
                <time>2017-04-13T06:40:23Z</time>
            </trkpt>
            <trkpt lat="47.411915604" lon="4.993479587">
                <ele>425.438995</ele>
                <time>2017-04-13T06:40:23Z</time>
            </trkpt>
            <trkpt lat="47.411944354" lon="4.993336676">
                <ele>424.139679</ele>
                <time>2017-04-13T06:40:23Z</time>
            </trkpt>
            <trkpt lat="47.412084751" lon="4.993121177">
                <ele>423.757629</ele>
            </trkpt>
            <trkpt lat="47.412248282" lon="4.992884723">
                <ele>424.505432</ele>
                <time>2017-04-13T06:40:23Z</time>
            </trkpt>
            <trkpt lat="47.412361437" lon="4.992713146">
                <ele>424.562988</ele>
                <time>2017-04-13T06:40:23Z</time>
            </trkpt>
            <trkpt lat="47.412471073" lon="4.992554644">
                <ele>424.981415</ele>
                <time>2017-04-13T06:40:23Z</time>
            </trkpt>
            <trkpt lat="47.412546510" lon="4.992398741">
                <ele>424.343048</ele>
                <time>2017-04-13T06:40:23Z</time>
            </trkpt>
            <trkpt lat="47.412615241" lon="4.992263876">
                <ele>424.591125</ele>
                <time>2017-04-13T06:40:23Z</time>
            </trkpt>
            <trkpt lat="47.412733342" lon="4.992021136">
                <ele>426.094116</ele>
                <time>2017-04-13T06:40:23Z</time>
            </trkpt>
            <trkpt lat="47.412827555" lon="4.991835225">
                <ele>424.719299</ele>
                <time>2017-04-13T06:40:23Z</time>
            </trkpt>
            <trkpt lat="47.412933838" lon="4.991616793">
                <ele>423.068085</ele>
                <time>2017-04-13T06:40:23Z</time>
            </trkpt>
            <trkpt lat="47.413033918" lon="4.991422836">
                <ele>422.991699</ele>
                <time>2017-04-13T06:40:23Z</time>
            </trkpt>
            <trkpt lat="47.413224857" lon="4.991192082">
                <ele>425.158020</ele>
                <time>2017-04-13T06:40:23Z</time>
            </trkpt>
            <trkpt lat="47.413361985" lon="4.991099462">
                <ele>425.180878</ele>
                <time>2017-04-13T06:40:23Z</time>
            </trkpt>
            <trkpt lat="47.413473045" lon="4.991039699">
                <ele>425.702972</ele>
                <time>2017-04-13T06:40:23Z</time>
            </trkpt>
            <trkpt lat="47.413577233" lon="4.991018912">
                <ele>426.912781</ele>
                <time>2017-04-13T06:40:23Z</time>
            </trkpt>
            <trkpt lat="47.413647305" lon="4.990992928">
                <ele>427.454987</ele>
                <time>2017-04-13T06:40:23Z</time>
            </trkpt>
            <trkpt lat="47.413812596" lon="4.991130726">
                <ele>427.837433</ele>
                <time>2017-04-13T06:40:23Z</time>
            </trkpt>
            <trkpt lat="47.413925501" lon="4.991234494">
                <ele>428.168304</ele>
                <time>2017-04-13T06:40:23Z</time>
            </trkpt>
            <trkpt lat="47.414079979" lon="4.991486622">
                <ele>429.293549</ele>
                <time>2017-04-13T06:40:23Z</time>
            </trkpt>
            <trkpt lat="47.414159104" lon="4.991694493">
                <ele>429.366211</ele>
                <time>2017-04-13T06:40:23Z</time>
            </trkpt>
            <trkpt lat="47.414263291" lon="4.991951734">
                <ele>429.532501</ele>
                <time>2017-04-13T06:40:23Z</time>
            </trkpt>
            <trkpt lat="47.414356666" lon="4.992193468">
                <ele>429.316406</ele>
                <time>2017-04-13T06:40:23Z</time>
            </trkpt>
            <trkpt lat="47.414441155" lon="4.992409134">
                <ele>428.789307</ele>
                <time>2017-04-13T06:40:23Z</time>
            </trkpt>
            <trkpt lat="47.414547103" lon="4.992663777">
                <ele>428.045471</ele>
                <time>2017-04-13T06:40:23Z</time>
            </trkpt>
            <trkpt lat="47.414606446" lon="4.992871648">
                <ele>427.565430</ele>
                <time>2017-04-13T06:40:23Z</time>
            </trkpt>
            <trkpt lat="47.414658498" lon="4.993136767">
                <ele>427.457458</ele>
                <time>2017-04-13T06:40:23Z</time>
            </trkpt>
            <trkpt lat="47.414681884" lon="4.993347237">
                <ele>427.787018</ele>
                <time>2017-04-13T06:40:23Z</time>
            </trkpt>
            <trkpt lat="47.414715998" lon="4.993612273">
                <ele>427.029999</ele>
                <time>2017-04-13T06:40:23Z</time>
            </trkpt>
            <trkpt lat="47.414751286" lon="4.993853755">
                <ele>426.217499</ele>
            </trkpt>
            <trkpt lat="47.414790848" lon="4.994116277">
                <ele>424.736237</ele>
                <time>2017-04-13T06:40:23Z</time>
            </trkpt>
            <trkpt lat="47.414841140" lon="4.994409895">
                <ele>421.535522</ele>
            </trkpt>
            <trkpt lat="47.414860921" lon="4.994482649">
                <ele>420.617340</ele>
                <time>2017-04-13T06:40:23Z</time>
            </trkpt>
            <trkpt lat="47.415002827" lon="4.994376116">
                <ele>420.699768</ele>
                <time>2017-04-13T06:40:23Z</time>
            </trkpt>
            <trkpt lat="47.415115982" lon="4.994292967">
                <ele>421.193298</ele>
                <time>2017-04-13T06:40:23Z</time>
            </trkpt>
            <trkpt lat="47.415137524" lon="4.994204622">
                <ele>422.007233</ele>
                <time>2017-04-13T06:40:23Z</time>
            </trkpt>
            <trkpt lat="47.415134003" lon="4.994111080">
                <ele>422.939606</ele>
                <time>2017-04-13T06:40:23Z</time>
            </trkpt>
            <trkpt lat="47.415150348" lon="4.993908405">
                <ele>423.932495</ele>
            </trkpt>
            <trkpt lat="47.415153952" lon="4.993765494">
                <ele>424.362488</ele>
            </trkpt>
            <trkpt lat="47.415161077" lon="4.993627779">
                <ele>424.782806</ele>
            </trkpt>
            <trkpt lat="47.415259900" lon="4.993529040">
                <ele>425.222839</ele>
            </trkpt>
            <trkpt lat="47.415403649" lon="4.993445892">
                <ele>425.967773</ele>
            </trkpt>
            <trkpt lat="47.415631805" lon="4.993357547">
                <ele>428.630707</ele>
            </trkpt>
            <trkpt lat="47.415740434" lon="4.993347656">
                <ele>429.912750</ele>
                <time>2017-04-13T06:40:23Z</time>
            </trkpt>
            <trkpt lat="47.415905306" lon="4.993272973">
                <ele>431.655365</ele>
            </trkpt>
            <trkpt lat="47.415974541" lon="4.993258808">
                <ele>432.151367</ele>
            </trkpt>
            <trkpt lat="47.416028436" lon="4.993204242">
                <ele>432.744385</ele>
            </trkpt>
            <trkpt lat="47.416224238" lon="4.993128888">
                <ele>434.759552</ele>
            </trkpt>
            <trkpt lat="47.416402102" lon="4.993079519">
                <ele>436.138397</ele>
            </trkpt>
            <trkpt lat="47.416545851" lon="4.992991090">
                <ele>437.231689</ele>
            </trkpt>
            <trkpt lat="47.416780461" lon="4.992885645">
                <ele>438.595001</ele>
                <time>2017-04-13T06:40:23Z</time>
            </trkpt>
            <trkpt lat="47.416923204" lon="4.992793277">
                <ele>439.485626</ele>
                <time>2017-04-13T06:40:23Z</time>
            </trkpt>
            <trkpt lat="47.417060332" lon="4.992700657">
                <ele>440.347015</ele>
                <time>2017-04-13T06:40:23Z</time>
            </trkpt>
            <trkpt lat="47.417203411" lon="4.992591776">
                <ele>441.418213</ele>
                <time>2017-04-13T06:40:23Z</time>
            </trkpt>
            <trkpt lat="47.417385215" lon="4.992489601">
                <ele>443.060730</ele>
                <time>2017-04-13T06:40:23Z</time>
            </trkpt>
            <trkpt lat="47.417522427" lon="4.992417013">
                <ele>444.212585</ele>
                <time>2017-04-13T06:40:23Z</time>
            </trkpt>
            <trkpt lat="47.417704733" lon="4.992318358">
                <ele>445.627167</ele>
                <time>2017-04-13T06:40:23Z</time>
            </trkpt>
            <trkpt lat="47.417800119" lon="4.992268821">
                <ele>446.306824</ele>
                <time>2017-04-13T06:40:23Z</time>
            </trkpt>
            <trkpt lat="47.417958286" lon="4.992177878">
                <ele>447.385193</ele>
                <time>2017-04-13T06:40:23Z</time>
            </trkpt>
            <trkpt lat="47.418134306" lon="4.991982998">
                <ele>448.747498</ele>
                <time>2017-04-13T06:40:23Z</time>
            </trkpt>
            <trkpt lat="47.418360701" lon="4.991793232">
                <ele>450.345001</ele>
                <time>2017-04-13T06:40:23Z</time>
            </trkpt>
            <trkpt lat="47.418380482" lon="4.991543787">
                <ele>451.135010</ele>
            </trkpt>
            <trkpt lat="47.418400263" lon="4.991320325">
                <ele>451.543762</ele>
            </trkpt>
            <trkpt lat="47.418450220" lon="4.991086638">
                <ele>452.089996</ele>
            </trkpt>
            <trkpt lat="47.418482574" lon="4.990891758">
                <ele>452.495941</ele>
                <time>2017-04-13T06:40:23Z</time>
            </trkpt>
            <trkpt lat="47.418527501" lon="4.990624124">
                <ele>452.600281</ele>
                <time>2017-04-13T06:40:23Z</time>
            </trkpt>
            <trkpt lat="47.418558011" lon="4.990444751">
                <ele>452.716888</ele>
                <time>2017-04-13T06:40:23Z</time>
            </trkpt>
            <trkpt lat="47.418583157" lon="4.990283651">
                <ele>452.823517</ele>
                <time>2017-04-13T06:40:23Z</time>
            </trkpt>
            <trkpt lat="47.418660438" lon="4.990047198">
                <ele>453.572235</ele>
                <time>2017-04-13T06:40:23Z</time>
            </trkpt>
            <trkpt lat="47.418732271" lon="4.989860114">
                <ele>454.193451</ele>
                <time>2017-04-13T06:40:23Z</time>
            </trkpt>
            <trkpt lat="47.418798739" lon="4.989691135">
                <ele>454.688507</ele>
                <time>2017-04-13T06:40:23Z</time>
            </trkpt>
            <trkpt lat="47.418852467" lon="4.989493825">
                <ele>455.076263</ele>
            </trkpt>
            <trkpt lat="47.418888342" lon="4.989272878">
                <ele>455.417877</ele>
            </trkpt>
            <trkpt lat="47.418904519" lon="4.989054613">
                <ele>455.677155</ele>
            </trkpt>
            <trkpt lat="47.418913487" lon="4.988849340">
                <ele>455.815002</ele>
            </trkpt>
            <trkpt lat="47.418940477" lon="4.988685641">
                <ele>455.964996</ele>
            </trkpt>
            <trkpt lat="47.418976435" lon="4.988532253">
                <ele>456.174988</ele>
            </trkpt>
            <trkpt lat="47.419026727" lon="4.988415325">
                <ele>456.489990</ele>
                <time>2017-04-13T06:40:23Z</time>
            </trkpt>
            <trkpt lat="47.419111133" lon="4.988264618">
                <ele>456.985260</ele>
                <time>2017-04-13T06:40:23Z</time>
            </trkpt>
            <trkpt lat="47.419195622" lon="4.988186667">
                <ele>457.075256</ele>
                <time>2017-04-13T06:40:23Z</time>
            </trkpt>
            <trkpt lat="47.419387819" lon="4.988056747">
                <ele>457.476410</ele>
                <time>2017-04-13T06:40:23Z</time>
            </trkpt>
            <trkpt lat="47.419533329" lon="4.987963205">
                <ele>457.901764</ele>
                <time>2017-04-13T06:40:23Z</time>
            </trkpt>
            <trkpt lat="47.419687891" lon="4.987911237">
                <ele>458.109650</ele>
                <time>2017-04-13T06:40:23Z</time>
            </trkpt>
            <trkpt lat="47.419904815" lon="4.987869496">
                <ele>458.240662</ele>
                <time>2017-04-13T06:40:23Z</time>
            </trkpt>
            <trkpt lat="47.420082176" lon="4.987893049">
                <ele>457.894806</ele>
                <time>2017-04-13T06:40:23Z</time>
            </trkpt>
            <trkpt lat="47.420189967" lon="4.987843679">
                <ele>457.001495</ele>
            </trkpt>
            <trkpt lat="47.420096593" lon="4.987708563">
                <ele>457.395325</ele>
            </trkpt>
            <trkpt lat="47.420304967" lon="4.987716358">
                <ele>455.630676</ele>
            </trkpt>
            <trkpt lat="47.420484591" lon="4.987713760">
                <ele>454.097900</ele>
                <time>2017-04-13T06:40:23Z</time>
            </trkpt>
            <trkpt lat="47.420696653" lon="4.987547463">
                <ele>451.190002</ele>
                <time>2017-04-13T06:40:23Z</time>
            </trkpt>
            <trkpt lat="47.420820622" lon="4.987453921">
                <ele>449.653168</ele>
                <time>2017-04-13T06:40:23Z</time>
            </trkpt>
            <trkpt lat="47.420926569" lon="4.987381166">
                <ele>448.543762</ele>
                <time>2017-04-13T06:40:23Z</time>
            </trkpt>
            <trkpt lat="47.421143493" lon="4.987220149">
                <ele>450.894684</ele>
                <time>2017-04-13T06:40:23Z</time>
            </trkpt>
            <trkpt lat="47.421209961" lon="4.987017475">
                <ele>450.811493</ele>
                <time>2017-04-13T06:40:23Z</time>
            </trkpt>
            <trkpt lat="47.421290763" lon="4.986780938">
                <ele>450.958588</ele>
            </trkpt>
            <trkpt lat="47.421357231" lon="4.986554878">
                <ele>451.438538</ele>
            </trkpt>
            <trkpt lat="47.421407606" lon="4.986380786">
                <ele>451.870605</ele>
            </trkpt>
            <trkpt lat="47.421502322" lon="4.986180877">
                <ele>451.320801</ele>
            </trkpt>
            <trkpt lat="47.421577843" lon="4.985996392">
                <ele>451.071991</ele>
            </trkpt>
            <trkpt lat="47.421708936" lon="4.985843087">
                <ele>452.368408</ele>
            </trkpt>
            <trkpt lat="47.421877831" lon="4.985624822">
                <ele>453.605469</ele>
            </trkpt>
            <trkpt lat="47.421994591" lon="4.985450646">
                <ele>453.096893</ele>
                <time>2017-04-13T06:40:23Z</time>
            </trkpt>
            <trkpt lat="47.422079081" lon="4.985320726">
                <ele>453.148743</ele>
            </trkpt>
            <trkpt lat="47.422145549" lon="4.985060887">
                <ele>453.029388</ele>
            </trkpt>
            <trkpt lat="47.422249736" lon="4.984676326">
                <ele>456.309540</ele>
            </trkpt>
            <trkpt lat="47.422315953" lon="4.984432161">
                <ele>457.722076</ele>
            </trkpt>
            <trkpt lat="47.422378818" lon="4.984226888">
                <ele>457.779999</ele>
            </trkpt>
            <trkpt lat="47.422441682" lon="4.984032009">
                <ele>457.741241</ele>
            </trkpt>
            <trkpt lat="47.422497422" lon="4.983886499">
                <ele>457.747498</ele>
                <time>2017-04-13T06:40:23Z</time>
            </trkpt>
            <trkpt lat="47.422590880" lon="4.983694134">
                <ele>456.951080</ele>
                <time>2017-04-13T06:40:23Z</time>
            </trkpt>
            <trkpt lat="47.422668077" lon="4.983551223">
                <ele>456.089996</ele>
                <time>2017-04-13T06:40:23Z</time>
            </trkpt>
            <trkpt lat="47.422774108" lon="4.983319966">
                <ele>454.860992</ele>
                <time>2017-04-13T06:40:23Z</time>
            </trkpt>
            <trkpt lat="47.422890868" lon="4.983099103">
                <ele>454.816071</ele>
                <time>2017-04-13T06:40:23Z</time>
            </trkpt>
            <trkpt lat="47.422984075" lon="4.982932806">
                <ele>455.867615</ele>
            </trkpt>
            <trkpt lat="47.423025398" lon="4.982854854">
                <ele>456.340210</ele>
            </trkpt>
            <trkpt lat="47.423082897" lon="4.982662573">
                <ele>456.986786</ele>
            </trkpt>
            <trkpt lat="47.423214074" lon="4.982618401">
                <ele>458.938446</ele>
            </trkpt>
            <trkpt lat="47.423402751" lon="4.982600212">
                <ele>460.519989</ele>
            </trkpt>
            <trkpt lat="47.423530323" lon="4.982582023">
                <ele>461.089996</ele>
                <time>2017-04-13T06:40:23Z</time>
            </trkpt>
            <trkpt lat="47.423643814" lon="4.982535252">
                <ele>461.589996</ele>
                <time>2017-04-13T06:40:23Z</time>
            </trkpt>
            <trkpt lat="47.423837855" lon="4.982412290">
                <ele>462.174622</ele>
                <time>2017-04-13T06:40:23Z</time>
            </trkpt>
            <trkpt lat="47.424048157" lon="4.982314976">
                <ele>462.429260</ele>
            </trkpt>
            <trkpt lat="47.424156955" lon="4.982246747">
                <ele>462.479553</ele>
            </trkpt>
            <trkpt lat="47.424359964" lon="4.982275330">
                <ele>462.345703</ele>
                <time>2017-04-13T06:40:23Z</time>
            </trkpt>
            <trkpt lat="47.424557609" lon="4.982350767">
                <ele>462.119781</ele>
            </trkpt>
            <trkpt lat="47.424715692" lon="4.982514465">
                <ele>461.804443</ele>
            </trkpt>
            <trkpt lat="47.424913002" lon="4.982740441">
                <ele>461.453278</ele>
            </trkpt>
            <trkpt lat="47.425087346" lon="4.982922329">
                <ele>460.869385</ele>
            </trkpt>
            <trkpt lat="47.425243584" lon="4.983091224">
                <ele>458.642181</ele>
            </trkpt>
            <trkpt lat="47.425371157" lon="4.983387524">
                <ele>457.707489</ele>
            </trkpt>
            <trkpt lat="47.425528402" lon="4.983755993">
                <ele>459.801117</ele>
            </trkpt>
            <trkpt lat="47.425681539" lon="4.983868143">
                <ele>460.726685</ele>
            </trkpt>
            <trkpt lat="47.425816320" lon="4.983987669">
                <ele>462.083130</ele>
            </trkpt>
            <trkpt lat="47.425938444" lon="4.984091604">
                <ele>462.674896</ele>
            </trkpt>
            <trkpt lat="47.426073225" lon="4.984164443">
                <ele>462.947815</ele>
            </trkpt>
            <trkpt lat="47.426216975" lon="4.984250190">
                <ele>463.415009</ele>
            </trkpt>
            <trkpt lat="47.426396599" lon="4.984372314">
                <ele>464.340302</ele>
            </trkpt>
            <trkpt lat="47.426560130" lon="4.984504832">
                <ele>464.632355</ele>
                <time>2017-04-13T06:40:23Z</time>
            </trkpt>
            <trkpt lat="47.426630203" lon="4.984504832">
                <ele>464.250366</ele>
                <time>2017-04-13T06:40:23Z</time>
            </trkpt>
            <trkpt lat="47.426777054" lon="4.984497707">
                <ele>463.362030</ele>
                <time>2017-04-13T06:40:23Z</time>
            </trkpt>
            <trkpt lat="47.426951649" lon="4.984489828">
                <ele>462.741425</ele>
                <time>2017-04-13T06:40:23Z</time>
            </trkpt>
            <trkpt lat="47.427165890" lon="4.984467281">
                <ele>462.348755</ele>
                <time>2017-04-13T06:40:23Z</time>
            </trkpt>
            <trkpt lat="47.427350543" lon="4.984447667">
                <ele>462.748016</ele>
            </trkpt>
            <trkpt lat="47.427449366" lon="4.984426880">
                <ele>463.612823</ele>
            </trkpt>
            <trkpt lat="47.427521199" lon="4.984317748">
                <ele>464.196259</ele>
            </trkpt>
            <trkpt lat="47.427607449" lon="4.984114990">
                <ele>465.076813</ele>
            </trkpt>
            <trkpt lat="47.427661931" lon="4.983886499">
                <ele>465.852875</ele>
            </trkpt>
            <trkpt lat="47.427703254" lon="4.983657841">
                <ele>466.380219</ele>
            </trkpt>
            <trkpt lat="47.427739212" lon="4.983468158">
                <ele>466.748596</ele>
            </trkpt>
            <trkpt lat="47.427746337" lon="4.983236818">
                <ele>466.015015</ele>
            </trkpt>
            <trkpt lat="47.427789504" lon="4.982992569">
                <ele>465.260040</ele>
            </trkpt>
            <trkpt lat="47.427873909" lon="4.982732730">
                <ele>464.975616</ele>
            </trkpt>
            <trkpt lat="47.427949347" lon="4.982571630">
                <ele>465.504822</ele>
            </trkpt>
            <trkpt lat="47.428044565" lon="4.982457217">
                <ele>466.782135</ele>
            </trkpt>
            <trkpt lat="47.428091336" lon="4.982293518">
                <ele>467.553314</ele>
            </trkpt>
            <trkpt lat="47.428105669" lon="4.982179189">
                <ele>467.844299</ele>
            </trkpt>
            <trkpt lat="47.428127211" lon="4.981955728">
                <ele>469.131500</ele>
                <time>2017-04-13T06:40:23Z</time>
            </trkpt>
            <trkpt lat="47.428088738" lon="4.981744504">
                <ele>469.679993</ele>
                <time>2017-04-13T06:40:23Z</time>
            </trkpt>
            <trkpt lat="47.427984634" lon="4.981589522">
                <ele>469.014008</ele>
                <time>2017-04-13T06:40:23Z</time>
            </trkpt>
            <trkpt lat="47.427907353" lon="4.981485587">
                <ele>468.722046</ele>
                <time>2017-04-13T06:40:23Z</time>
            </trkpt>
            <trkpt lat="47.427824708" lon="4.981337478">
                <ele>468.640625</ele>
                <time>2017-04-13T06:40:23Z</time>
            </trkpt>
            <trkpt lat="47.427795958" lon="4.981147796">
                <ele>468.696320</ele>
                <time>2017-04-13T06:40:23Z</time>
            </trkpt>
            <trkpt lat="47.427779781" lon="4.980952917">
                <ele>469.104858</ele>
                <time>2017-04-13T06:40:23Z</time>
            </trkpt>
            <trkpt lat="47.427790593" lon="4.980731970">
                <ele>470.563934</ele>
                <time>2017-04-13T06:40:23Z</time>
            </trkpt>
            <trkpt lat="47.427779781" lon="4.980500713">
                <ele>470.098145</ele>
            </trkpt>
            <trkpt lat="47.427752875" lon="4.980225284">
                <ele>469.150818</ele>
            </trkpt>
            <trkpt lat="47.427724125" lon="4.979962762">
                <ele>468.286499</ele>
            </trkpt>
            <trkpt lat="47.427691771" lon="4.979697727">
                <ele>467.485321</ele>
            </trkpt>
            <trkpt lat="47.427661261" lon="4.979497651">
                <ele>466.952820</ele>
                <time>2017-04-13T06:40:23Z</time>
            </trkpt>
            <trkpt lat="47.427612729" lon="4.979258599">
                <ele>466.410858</ele>
                <time>2017-04-13T06:40:23Z</time>
            </trkpt>
            <trkpt lat="47.427568641" lon="4.979024995">
                <ele>466.197021</ele>
                <time>2017-04-13T06:40:23Z</time>
            </trkpt>
            <trkpt lat="47.427559672" lon="4.978832630">
                <ele>466.585022</ele>
                <time>2017-04-13T06:40:23Z</time>
            </trkpt>
            <trkpt lat="47.427552463" lon="4.978684522">
                <ele>466.785065</ele>
                <time>2017-04-13T06:40:23Z</time>
            </trkpt>
            <trkpt lat="47.427507536" lon="4.978487045">
                <ele>466.380005</ele>
                <time>2017-04-13T06:40:23Z</time>
            </trkpt>
            <trkpt lat="47.427455401" lon="4.978263583">
                <ele>465.969543</ele>
                <time>2017-04-13T06:40:23Z</time>
            </trkpt>
            <trkpt lat="47.427383568" lon="4.977951692">
                <ele>465.037018</ele>
                <time>2017-04-13T06:40:23Z</time>
            </trkpt>
            <trkpt lat="47.427320704" lon="4.977621697">
                <ele>464.311035</ele>
                <time>2017-04-13T06:40:23Z</time>
            </trkpt>
            <trkpt lat="47.427324308" lon="4.977387842">
                <ele>464.487885</ele>
                <time>2017-04-13T06:40:23Z</time>
            </trkpt>
            <trkpt lat="47.427286590" lon="4.977062959">
                <ele>463.401886</ele>
                <time>2017-04-13T06:40:23Z</time>
            </trkpt>
            <trkpt lat="47.427314837" lon="4.976831786">
                <ele>463.136749</ele>
            </trkpt>
            <trkpt lat="47.427339982" lon="4.976618718">
                <ele>462.355469</ele>
            </trkpt>
            <trkpt lat="47.427374097" lon="4.976428952">
                <ele>461.461090</ele>
            </trkpt>
            <trkpt lat="47.427408295" lon="4.976228876">
                <ele>460.457611</ele>
            </trkpt>
            <trkpt lat="47.427474763" lon="4.976156121">
                <ele>460.318695</ele>
            </trkpt>
            <trkpt lat="47.427571742" lon="4.976104153">
                <ele>460.010010</ele>
            </trkpt>
            <trkpt lat="47.427670565" lon="4.976070374">
                <ele>459.718750</ele>
            </trkpt>
            <trkpt lat="47.427772991" lon="4.976054784">
                <ele>459.562500</ele>
            </trkpt>
            <trkpt lat="47.427938282" lon="4.976091161">
                <ele>459.753204</ele>
            </trkpt>
            <trkpt lat="47.428078428" lon="4.976148326">
                <ele>459.495300</ele>
                <time>2017-04-13T06:40:23Z</time>
            </trkpt>
            <trkpt lat="47.428166438" lon="4.976205491">
                <ele>459.505493</ele>
                <time>2017-04-13T06:40:23Z</time>
            </trkpt>
            <trkpt lat="47.428302979" lon="4.976291237">
                <ele>459.641815</ele>
                <time>2017-04-13T06:40:23Z</time>
            </trkpt>
            <trkpt lat="47.428425187" lon="4.976382181">
                <ele>459.627594</ele>
                <time>2017-04-13T06:40:23Z</time>
            </trkpt>
            <trkpt lat="47.428523926" lon="4.976477567">
                <ele>459.471313</ele>
                <time>2017-04-13T06:40:23Z</time>
            </trkpt>
            <trkpt lat="47.428716794" lon="4.976652917">
                <ele>459.560547</ele>
                <time>2017-04-13T06:40:23Z</time>
            </trkpt>
            <trkpt lat="47.428877307" lon="4.976829104">
                <ele>459.894135</ele>
                <time>2017-04-13T06:40:23Z</time>
            </trkpt>
            <trkpt lat="47.429057015" lon="4.977029180">
                <ele>459.267761</ele>
                <time>2017-04-13T06:40:23Z</time>
            </trkpt>
            <trkpt lat="47.429220462" lon="4.977218946">
                <ele>459.649597</ele>
                <time>2017-04-13T06:40:23Z</time>
            </trkpt>
            <trkpt lat="47.429337306" lon="4.977406031">
                <ele>459.797943</ele>
            </trkpt>
            <trkpt lat="47.429436129" lon="4.977619098">
                <ele>460.712341</ele>
            </trkpt>
            <trkpt lat="47.429444427" lon="4.977722950">
                <ele>461.820862</ele>
            </trkpt>
            <trkpt lat="47.429475021" lon="4.977808697">
                <ele>462.277191</ele>
            </trkpt>
            <trkpt lat="47.429536125" lon="4.977917830">
                <ele>462.470795</ele>
            </trkpt>
            <trkpt lat="47.429577447" lon="4.978097118">
                <ele>464.287140</ele>
            </trkpt>
            <trkpt lat="47.429613322" lon="4.978240030">
                <ele>465.447601</ele>
            </trkpt>
            <trkpt lat="47.429706780" lon="4.978395933">
                <ele>464.211639</ele>
            </trkpt>
            <trkpt lat="47.429782217" lon="4.978544125">
                <ele>461.669891</ele>
            </trkpt>
            <trkpt lat="47.429852290" lon="4.978741603">
                <ele>460.648865</ele>
            </trkpt>
            <trkpt lat="47.429938540" lon="4.978816956">
                <ele>458.017761</ele>
            </trkpt>
            <trkpt lat="47.430012217" lon="4.978868924">
                <ele>455.946808</ele>
            </trkpt>
            <trkpt lat="47.430053540" lon="4.978959868">
                <ele>456.247620</ele>
                <time>2017-04-13T06:40:23Z</time>
            </trkpt>
            <trkpt lat="47.430111039" lon="4.978988450">
                <ele>454.828186</ele>
                <time>2017-04-13T06:40:23Z</time>
            </trkpt>
            <trkpt lat="47.430172060" lon="4.978993647">
                <ele>453.321198</ele>
                <time>2017-04-13T06:40:23Z</time>
            </trkpt>
            <trkpt lat="47.430261914" lon="4.978939081">
                <ele>449.873596</ele>
                <time>2017-04-13T06:40:23Z</time>
            </trkpt>
            <trkpt lat="47.430340955" lon="4.978866326">
                <ele>446.652435</ele>
                <time>2017-04-13T06:40:23Z</time>
            </trkpt>
            <trkpt lat="47.430409268" lon="4.978793571">
                <ele>443.939514</ele>
                <time>2017-04-13T06:40:23Z</time>
            </trkpt>
            <trkpt lat="47.430522004" lon="4.978715703">
                <ele>440.468994</ele>
                <time>2017-04-13T06:40:23Z</time>
            </trkpt>
            <trkpt lat="47.430622671" lon="4.978526020">
                <ele>439.108368</ele>
                <time>2017-04-13T06:40:23Z</time>
            </trkpt>
            <trkpt lat="47.430662150" lon="4.978471370">
                <ele>440.321869</ele>
                <time>2017-04-13T06:40:23Z</time>
            </trkpt>
            <trkpt lat="47.430678327" lon="4.978396017">
                <ele>440.050323</ele>
                <time>2017-04-13T06:40:23Z</time>
            </trkpt>
            <trkpt lat="47.430730462" lon="4.978240114">
                <ele>440.580627</ele>
                <time>2017-04-13T06:40:23Z</time>
            </trkpt>
            <trkpt lat="47.430739431" lon="4.978117989">
                <ele>437.546234</ele>
                <time>2017-04-13T06:40:23Z</time>
            </trkpt>
            <trkpt lat="47.430730462" lon="4.978008857">
                <ele>434.175934</ele>
                <time>2017-04-13T06:40:23Z</time>
            </trkpt>
            <trkpt lat="47.430739431" lon="4.977985471">
                <ele>433.916046</ele>
                <time>2017-04-13T06:40:23Z</time>
            </trkpt>
            <trkpt lat="47.430814868" lon="4.977962086">
                <ele>436.135712</ele>
            </trkpt>
            <trkpt lat="47.430926263" lon="4.977902323">
                <ele>438.233185</ele>
            </trkpt>
            <trkpt lat="47.431014273" lon="4.977826970">
                <ele>438.285828</ele>
            </trkpt>
            <trkpt lat="47.431061044" lon="4.977790592">
                <ele>437.935089</ele>
            </trkpt>
            <trkpt lat="47.431116700" lon="4.977785395">
                <ele>438.463104</ele>
            </trkpt>
            <trkpt lat="47.431141846" lon="4.977811379">
                <ele>439.823395</ele>
            </trkpt>
            <trkpt lat="47.431195742" lon="4.977803584">
                <ele>440.217621</ele>
            </trkpt>
            <trkpt lat="47.431258606" lon="4.977790592">
                <ele>440.576996</ele>
            </trkpt>
            <trkpt lat="47.431271179" lon="4.977764608">
                <ele>439.750000</ele>
            </trkpt>
            <trkpt lat="47.431321554" lon="4.977746420">
                <ele>439.761292</ele>
            </trkpt>
            <trkpt lat="47.431373606" lon="4.977743821">
                <ele>440.445313</ele>
            </trkpt>
            <trkpt lat="47.431477793" lon="4.977691853">
                <ele>440.073914</ele>
            </trkpt>
            <trkpt lat="47.431601761" lon="4.977632007">
                <ele>441.766235</ele>
            </trkpt>
            <trkpt lat="47.431474272" lon="4.977533268">
                <ele>440.532043</ele>
            </trkpt>
            <trkpt lat="47.431366397" lon="4.977509882">
                <ele>438.921753</ele>
            </trkpt>
            <trkpt lat="47.431265814" lon="4.977468308">
                <ele>437.865509</ele>
            </trkpt>
            <trkpt lat="47.431204710" lon="4.977439726">
                <ele>437.188416</ele>
            </trkpt>
            <trkpt lat="47.431190377" lon="4.977392955">
                <ele>438.108002</ele>
            </trkpt>
            <trkpt lat="47.431199346" lon="4.977333192">
                <ele>439.847412</ele>
            </trkpt>
            <trkpt lat="47.431213763" lon="4.977299413">
                <ele>441.121490</ele>
                <time>2017-04-13T06:40:23Z</time>
            </trkpt>
            <trkpt lat="47.431246033" lon="4.977270830">
                <ele>442.769501</ele>
                <time>2017-04-13T06:40:23Z</time>
            </trkpt>
            <trkpt lat="47.431271179" lon="4.977182485">
                <ele>445.907104</ele>
                <time>2017-04-13T06:40:23Z</time>
            </trkpt>
            <trkpt lat="47.431249637" lon="4.977125321">
                <ele>446.808685</ele>
                <time>2017-04-13T06:40:23Z</time>
            </trkpt>
            <trkpt lat="47.431145450" lon="4.977062959">
                <ele>444.972992</ele>
                <time>2017-04-13T06:40:23Z</time>
            </trkpt>
            <trkpt lat="47.431102367" lon="4.977068156">
                <ele>443.413879</ele>
                <time>2017-04-13T06:40:23Z</time>
            </trkpt>
            <trkpt lat="47.431071773" lon="4.976972016">
                <ele>444.562012</ele>
                <time>2017-04-13T06:40:23Z</time>
            </trkpt>
            <trkpt lat="47.431005305" lon="4.976901859">
                <ele>441.893890</ele>
                <time>2017-04-13T06:40:23Z</time>
            </trkpt>
            <trkpt lat="47.430976555" lon="4.976745872">
                <ele>442.230133</ele>
                <time>2017-04-13T06:40:23Z</time>
            </trkpt>
            <trkpt lat="47.430958617" lon="4.976660125">
                <ele>442.065613</ele>
                <time>2017-04-13T06:40:23Z</time>
            </trkpt>
            <trkpt lat="47.430976387" lon="4.976517465">
                <ele>445.253021</ele>
                <time>2017-04-13T06:40:23Z</time>
            </trkpt>
            <trkpt lat="47.430987200" lon="4.976379750">
                <ele>447.807495</ele>
                <time>2017-04-13T06:40:23Z</time>
            </trkpt>
            <trkpt lat="47.430985356" lon="4.976236839">
                <ele>449.105560</ele>
                <time>2017-04-13T06:40:23Z</time>
            </trkpt>
            <trkpt lat="47.430979991" lon="4.976091329">
                <ele>448.718414</ele>
                <time>2017-04-13T06:40:23Z</time>
            </trkpt>
            <trkpt lat="47.430992564" lon="4.975870382">
                <ele>449.827271</ele>
                <time>2017-04-13T06:40:23Z</time>
            </trkpt>
            <trkpt lat="47.430971023" lon="4.975743061">
                <ele>448.181213</ele>
                <time>2017-04-13T06:40:23Z</time>
            </trkpt>
            <trkpt lat="47.430960210" lon="4.975574166">
                <ele>447.764984</ele>
                <time>2017-04-13T06:40:23Z</time>
            </trkpt>
            <trkpt lat="47.430999773" lon="4.975439049">
                <ele>451.432617</ele>
                <time>2017-04-13T06:40:23Z</time>
            </trkpt>
            <trkpt lat="47.431024918" lon="4.975316925">
                <ele>453.762482</ele>
                <time>2017-04-13T06:40:23Z</time>
            </trkpt>
            <trkpt lat="47.430996168" lon="4.975077789">
                <ele>453.186859</ele>
            </trkpt>
            <trkpt lat="47.431010501" lon="4.974916689">
                <ele>454.526886</ele>
            </trkpt>
            <trkpt lat="47.431008741" lon="4.974791966">
                <ele>454.017059</ele>
            </trkpt>
            <trkpt lat="47.430999773" lon="4.974659448">
                <ele>453.284241</ele>
            </trkpt>
            <trkpt lat="47.430960210" lon="4.974578898">
                <ele>451.737823</ele>
            </trkpt>
            <trkpt lat="47.430911679" lon="4.974360634">
                <ele>450.516327</ele>
            </trkpt>
            <trkpt lat="47.430890137" lon="4.974212442">
                <ele>447.001434</ele>
                <time>2017-04-13T06:40:23Z</time>
            </trkpt>
            <trkpt lat="47.430915283" lon="4.974069530">
                <ele>440.196136</ele>
                <time>2017-04-13T06:40:23Z</time>
            </trkpt>
            <trkpt lat="47.430918971" lon="4.973989064">
                <ele>436.101563</ele>
                <time>2017-04-13T06:40:23Z</time>
            </trkpt>
            <trkpt lat="47.430953085" lon="4.973965678">
                <ele>435.630005</ele>
                <time>2017-04-13T06:40:23Z</time>
            </trkpt>
            <trkpt lat="47.431023158" lon="4.973965678">
                <ele>437.082214</ele>
            </trkpt>
            <trkpt lat="47.431064481" lon="4.973996859">
                <ele>439.493683</ele>
            </trkpt>
            <trkpt lat="47.431157939" lon="4.973983867">
                <ele>440.200012</ele>
            </trkpt>
            <trkpt lat="47.431218959" lon="4.973976072">
                <ele>439.679993</ele>
            </trkpt>
            <trkpt lat="47.431317782" lon="4.973994261">
                <ele>440.320007</ele>
            </trkpt>
            <trkpt lat="47.431292636" lon="4.973947490">
                <ele>438.119995</ele>
            </trkpt>
            <trkpt lat="47.431262126" lon="4.973895522">
                <ele>435.679993</ele>
            </trkpt>
            <trkpt lat="47.431213595" lon="4.973856546">
                <ele>433.920013</ele>
            </trkpt>
            <trkpt lat="47.431118377" lon="4.973825365">
                <ele>432.196136</ele>
            </trkpt>
            <trkpt lat="47.431015950" lon="4.973812373">
                <ele>429.289551</ele>
            </trkpt>
            <trkpt lat="47.430963898" lon="4.973809775">
                <ele>428.009186</ele>
            </trkpt>
            <trkpt lat="47.430874044" lon="4.973814972">
                <ele>426.288513</ele>
            </trkpt>
            <trkpt lat="47.430820148" lon="4.973840956">
                <ele>426.449738</ele>
            </trkpt>
            <trkpt lat="47.430776982" lon="4.973843554">
                <ele>425.623688</ele>
            </trkpt>
            <trkpt lat="47.430690816" lon="4.973903317">
                <ele>426.953461</ele>
            </trkpt>
            <trkpt lat="47.430615295" lon="4.974028040">
                <ele>428.110962</ele>
            </trkpt>
            <trkpt lat="47.430608170" lon="4.974100878">
                <ele>430.963409</ele>
            </trkpt>
            <trkpt lat="47.430584785" lon="4.974152846">
                <ele>431.503265</ele>
            </trkpt>
            <trkpt lat="47.430527285" lon="4.974142453">
                <ele>425.680420</ele>
            </trkpt>
            <trkpt lat="47.430523681" lon="4.973976072">
                <ele>418.627380</ele>
            </trkpt>
            <trkpt lat="47.430476993" lon="4.973942293">
                <ele>413.825378</ele>
            </trkpt>
            <trkpt lat="47.430399712" lon="4.974012449">
                <ele>410.054688</ele>
            </trkpt>
            <trkpt lat="47.430358389" lon="4.974093083">
                <ele>408.647827</ele>
                <time>2017-04-13T06:40:23Z</time>
            </trkpt>
            <trkpt lat="47.430340452" lon="4.974173633">
                <ele>409.053741</ele>
                <time>2017-04-13T06:40:23Z</time>
            </trkpt>
            <trkpt lat="47.430291921" lon="4.974199617">
                <ele>404.951172</ele>
                <time>2017-04-13T06:40:23Z</time>
            </trkpt>
            <trkpt lat="47.430232661" lon="4.974204814">
                <ele>399.200684</ele>
                <time>2017-04-13T06:40:23Z</time>
            </trkpt>
            <trkpt lat="47.430198546" lon="4.974165838">
                <ele>396.497894</ele>
                <time>2017-04-13T06:40:23Z</time>
            </trkpt>
            <trkpt lat="47.430169797" lon="4.974100878">
                <ele>394.243378</ele>
                <time>2017-04-13T06:40:23Z</time>
            </trkpt>
            <trkpt lat="47.430158984" lon="4.974028040">
                <ele>392.789795</ele>
                <time>2017-04-13T06:40:23Z</time>
            </trkpt>
            <trkpt lat="47.430202067" lon="4.973859144">
                <ele>392.789490</ele>
                <time>2017-04-13T06:40:23Z</time>
            </trkpt>
            <trkpt lat="47.430241629" lon="4.973653872">
                <ele>391.974518</ele>
                <time>2017-04-13T06:40:23Z</time>
            </trkpt>
            <trkpt lat="47.430313462" lon="4.973547338">
                <ele>393.169586</ele>
                <time>2017-04-13T06:40:23Z</time>
            </trkpt>
            <trkpt lat="47.430376410" lon="4.973404426">
                <ele>391.369965</ele>
                <time>2017-04-13T06:40:23Z</time>
            </trkpt>
            <trkpt lat="47.430401556" lon="4.973277105">
                <ele>388.312195</ele>
                <time>2017-04-13T06:40:23Z</time>
            </trkpt>
            <trkpt lat="47.430399712" lon="4.973071748">
                <ele>381.953125</ele>
                <time>2017-04-13T06:40:23Z</time>
            </trkpt>
            <trkpt lat="47.430443298" lon="4.972966639">
                <ele>379.543488</ele>
                <time>2017-04-13T06:40:23Z</time>
            </trkpt>
            <trkpt lat="47.430464504" lon="4.972777041">
                <ele>375.906616</ele>
                <time>2017-04-13T06:40:23Z</time>
            </trkpt>
            <trkpt lat="47.430401808" lon="4.972566655">
                <ele>371.339111</ele>
                <time>2017-04-13T06:40:23Z</time>
            </trkpt>
            <trkpt lat="47.430381775" lon="4.972422319">
                <ele>368.664795</ele>
                <time>2017-04-13T06:40:23Z</time>
            </trkpt>
            <trkpt lat="47.430367358" lon="4.972266331">
                <ele>365.927887</ele>
                <time>2017-04-13T06:40:23Z</time>
            </trkpt>
            <trkpt lat="47.430514712" lon="4.972294914">
                <ele>367.651978</ele>
            </trkpt>
            <trkpt lat="47.430624263" lon="4.972313102">
                <ele>368.895538</ele>
            </trkpt>
            <trkpt lat="47.430739263" lon="4.972297512">
                <ele>369.570648</ele>
            </trkpt>
            <trkpt lat="47.430909919" lon="4.972266331">
                <ele>371.750031</ele>
                <time>2017-04-13T06:40:23Z</time>
            </trkpt>
            <trkpt lat="47.431012345" lon="4.972250741">
                <ele>373.520782</ele>
                <time>2017-04-13T06:40:23Z</time>
            </trkpt>
            <trkpt lat="47.431157855" lon="4.972276725">
                <ele>374.634125</ele>
                <time>2017-04-13T06:40:23Z</time>
            </trkpt>
            <trkpt lat="47.431251230" lon="4.972318551">
                <ele>375.921875</ele>
                <time>2017-04-13T06:40:23Z</time>
            </trkpt>
            <trkpt lat="47.431390872" lon="4.972358616">
                <ele>379.453583</ele>
                <time>2017-04-13T06:40:23Z</time>
            </trkpt>
            <trkpt lat="47.431563959" lon="4.972416870">
                <ele>383.731262</ele>
                <time>2017-04-13T06:40:23Z</time>
            </trkpt>
            <trkpt lat="47.431764118" lon="4.972517956">
                <ele>389.592499</ele>
                <time>2017-04-13T06:40:23Z</time>
            </trkpt>
            <trkpt lat="47.431947514" lon="4.972618204">
                <ele>394.469238</ele>
                <time>2017-04-13T06:40:23Z</time>
            </trkpt>
            <trkpt lat="47.432138119" lon="4.972644188">
                <ele>398.437805</ele>
                <time>2017-04-13T06:40:23Z</time>
            </trkpt>
            <trkpt lat="47.432278097" lon="4.972676039">
                <ele>401.529999</ele>
                <time>2017-04-13T06:40:23Z</time>
            </trkpt>
            <trkpt lat="47.432473395" lon="4.972743681">
                <ele>405.698761</ele>
                <time>2017-04-13T06:40:23Z</time>
            </trkpt>
            <trkpt lat="47.432646062" lon="4.972818531">
                <ele>409.377441</ele>
                <time>2017-04-13T06:40:23Z</time>
            </trkpt>
            <trkpt lat="47.432880504" lon="4.972896483">
                <ele>414.022888</ele>
                <time>2017-04-13T06:40:23Z</time>
            </trkpt>
            <trkpt lat="47.433048561" lon="4.972929675">
                <ele>417.313995</ele>
                <time>2017-04-13T06:40:23Z</time>
            </trkpt>
            <trkpt lat="47.433272190" lon="4.972990444">
                <ele>421.140991</ele>
                <time>2017-04-13T06:40:23Z</time>
            </trkpt>
            <trkpt lat="47.433479978" lon="4.973010980">
                <ele>425.682037</ele>
                <time>2017-04-13T06:40:23Z</time>
            </trkpt>
            <trkpt lat="47.433810979" lon="4.973227987">
                <ele>435.350006</ele>
                <time>2017-04-13T06:40:23Z</time>
            </trkpt>
            <trkpt lat="47.434140975" lon="4.973476008">
                <ele>445.566223</ele>
                <time>2017-04-13T06:40:23Z</time>
            </trkpt>
            <trkpt lat="47.434308026" lon="4.973672982">
                <ele>445.714783</ele>
                <time>2017-04-13T06:40:23Z</time>
            </trkpt>
            <trkpt lat="47.434468037" lon="4.973881021">
                <ele>451.104401</ele>
                <time>2017-04-13T06:40:23Z</time>
            </trkpt>
            <trkpt lat="47.434598040" lon="4.974118983">
                <ele>457.580414</ele>
                <time>2017-04-13T06:40:23Z</time>
            </trkpt>
            <trkpt lat="47.434646655" lon="4.974384774">
                <ele>460.439514</ele>
                <time>2017-04-13T06:40:23Z</time>
            </trkpt>
            <trkpt lat="47.434640620" lon="4.974649809">
                <ele>463.070007</ele>
                <time>2017-04-13T06:40:23Z</time>
            </trkpt>
            <trkpt lat="47.434655959" lon="4.974965556">
                <ele>466.263489</ele>
                <time>2017-04-13T06:40:23Z</time>
            </trkpt>
            <trkpt lat="47.434717482" lon="4.975225646">
                <ele>469.129486</ele>
                <time>2017-04-13T06:40:23Z</time>
            </trkpt>
            <trkpt lat="47.434836254" lon="4.975447012">
                <ele>476.540619</ele>
                <time>2017-04-13T06:40:23Z</time>
            </trkpt>
            <trkpt lat="47.435031384" lon="4.975523036">
                <ele>483.071625</ele>
            </trkpt>
            <trkpt lat="47.435205141" lon="4.975548182">
                <ele>487.316254</ele>
                <time>2017-04-13T06:40:23Z</time>
            </trkpt>
            <trkpt lat="47.435417706" lon="4.975600149">
                <ele>490.578735</ele>
                <time>2017-04-13T06:40:23Z</time>
            </trkpt>
            <trkpt lat="47.435669247" lon="4.975670641">
                <ele>493.596252</ele>
                <time>2017-04-13T06:40:23Z</time>
            </trkpt>
            <trkpt lat="47.435700009" lon="4.975423040">
                <ele>494.081238</ele>
                <time>2017-04-13T06:40:23Z</time>
            </trkpt>
            <trkpt lat="47.435763376" lon="4.974995479">
                <ele>494.690002</ele>
                <time>2017-04-13T06:40:23Z</time>
            </trkpt>
            <trkpt lat="47.435822049" lon="4.974641930">
                <ele>494.910004</ele>
                <time>2017-04-13T06:40:23Z</time>
            </trkpt>
            <trkpt lat="47.435867814" lon="4.974362310">
                <ele>495.333740</ele>
                <time>2017-04-13T06:40:23Z</time>
            </trkpt>
            <trkpt lat="47.435909640" lon="4.974007923">
                <ele>496.021240</ele>
                <time>2017-04-13T06:40:23Z</time>
            </trkpt>
            <trkpt lat="47.435977282" lon="4.973754287">
                <ele>496.847504</ele>
                <time>2017-04-13T06:40:23Z</time>
            </trkpt>
            <trkpt lat="47.436079038" lon="4.973485731">
                <ele>498.102509</ele>
                <time>2017-04-13T06:40:23Z</time>
            </trkpt>
            <trkpt lat="47.436223961" lon="4.973152969">
                <ele>499.274994</ele>
                <time>2017-04-13T06:40:23Z</time>
            </trkpt>
            <trkpt lat="47.436384223" lon="4.972928753">
                <ele>499.619995</ele>
                <time>2017-04-13T06:40:23Z</time>
            </trkpt>
            <trkpt lat="47.436549095" lon="4.972605295">
                <ele>499.970001</ele>
            </trkpt>
            <trkpt lat="47.436712375" lon="4.972348055">
                <ele>500.529999</ele>
                <time>2017-04-13T06:40:23Z</time>
            </trkpt>
            <trkpt lat="47.436881354" lon="4.972091150">
                <ele>500.854248</ele>
                <time>2017-04-13T06:40:23Z</time>
            </trkpt>
            <trkpt lat="47.437055781" lon="4.971842710">
                <ele>501.109985</ele>
                <time>2017-04-13T06:40:23Z</time>
            </trkpt>
            <trkpt lat="47.437233897" lon="4.971677419">
                <ele>501.890015</ele>
            </trkpt>
            <trkpt lat="47.437429447" lon="4.971488155">
                <ele>502.739990</ele>
                <time>2017-04-13T06:40:23Z</time>
            </trkpt>
            <trkpt lat="47.437596414" lon="4.971322278">
                <ele>503.470062</ele>
                <time>2017-04-13T06:40:23Z</time>
            </trkpt>
            <trkpt lat="47.437775871" lon="4.971098984">
                <ele>504.123627</ele>
                <time>2017-04-13T06:40:23Z</time>
            </trkpt>
            <trkpt lat="47.437819708" lon="4.970902177">
                <ele>504.231140</ele>
                <time>2017-04-13T06:40:23Z</time>
            </trkpt>
            <trkpt lat="47.437838987" lon="4.970601015">
                <ele>504.143738</ele>
                <time>2017-04-13T06:40:23Z</time>
            </trkpt>
            <trkpt lat="47.437862037" lon="4.970233971">
                <ele>503.678741</ele>
                <time>2017-04-13T06:40:23Z</time>
            </trkpt>
            <trkpt lat="47.437859019" lon="4.969707001">
                <ele>502.987030</ele>
                <time>2017-04-13T06:40:23Z</time>
            </trkpt>
            <trkpt lat="47.437868575" lon="4.969246499">
                <ele>502.592621</ele>
            </trkpt>
            <trkpt lat="47.437871592" lon="4.968865290">
                <ele>502.218506</ele>
            </trkpt>
            <trkpt lat="47.437861869" lon="4.968549712">
                <ele>501.047485</ele>
            </trkpt>
            <trkpt lat="47.437863965" lon="4.968209909">
                <ele>498.587006</ele>
            </trkpt>
            <trkpt lat="47.437864384" lon="4.967944622">
                <ele>496.846313</ele>
            </trkpt>
            <trkpt lat="47.437864970" lon="4.967671037">
                <ele>496.814575</ele>
            </trkpt>
            <trkpt lat="47.437860360" lon="4.967380688">
                <ele>496.520508</ele>
                <time>2017-04-13T06:40:23Z</time>
            </trkpt>
            <trkpt lat="47.437996734" lon="4.967321092">
                <ele>501.694763</ele>
                <time>2017-04-13T06:40:23Z</time>
            </trkpt>
            <trkpt lat="47.437988017" lon="4.966892023">
                <ele>502.786865</ele>
                <time>2017-04-13T06:40:23Z</time>
            </trkpt>
            <trkpt lat="47.437975025" lon="4.966502013">
                <ele>503.527924</ele>
                <time>2017-04-13T06:40:23Z</time>
            </trkpt>
            <trkpt lat="47.437955998" lon="4.966069004">
                <ele>503.999176</ele>
                <time>2017-04-13T06:40:23Z</time>
            </trkpt>
            <trkpt lat="47.437955998" lon="4.965773961">
                <ele>505.042511</ele>
                <time>2017-04-13T06:40:23Z</time>
            </trkpt>
            <trkpt lat="47.437883997" lon="4.965497022">
                <ele>504.011993</ele>
                <time>2017-04-13T06:40:23Z</time>
            </trkpt>
            <trkpt lat="47.437790707" lon="4.965246571">
                <ele>502.814545</ele>
                <time>2017-04-13T06:40:23Z</time>
            </trkpt>
            <trkpt lat="47.437672690" lon="4.964992013">
                <ele>501.795013</ele>
                <time>2017-04-13T06:40:23Z</time>
            </trkpt>
            <trkpt lat="47.437544949" lon="4.964670651">
                <ele>500.346863</ele>
            </trkpt>
            <trkpt lat="47.437422490" lon="4.964366136">
                <ele>498.089203</ele>
            </trkpt>
            <trkpt lat="47.437288966" lon="4.964052821">
                <ele>497.064758</ele>
            </trkpt>
            <trkpt lat="47.437166171" lon="4.963764902">
                <ele>495.300537</ele>
                <time>2017-04-13T06:40:23Z</time>
            </trkpt>
            <trkpt lat="47.436973639" lon="4.963324349">
                <ele>492.679840</ele>
                <time>2017-04-13T06:40:23Z</time>
            </trkpt>
            <trkpt lat="47.436824609" lon="4.962952193">
                <ele>491.343048</ele>
                <time>2017-04-13T06:40:23Z</time>
            </trkpt>
            <trkpt lat="47.436712962" lon="4.962612977">
                <ele>490.631256</ele>
                <time>2017-04-13T06:40:23Z</time>
            </trkpt>
            <trkpt lat="47.436656049" lon="4.962446429">
                <ele>489.198975</ele>
                <time>2017-04-13T06:40:23Z</time>
            </trkpt>
            <trkpt lat="47.436577426" lon="4.962193882">
                <ele>488.294159</ele>
                <time>2017-04-13T06:40:23Z</time>
            </trkpt>
            <trkpt lat="47.436599722" lon="4.961954579">
                <ele>489.676727</ele>
                <time>2017-04-13T06:40:23Z</time>
            </trkpt>
            <trkpt lat="47.436838020" lon="4.961839998">
                <ele>489.934235</ele>
                <time>2017-04-13T06:40:23Z</time>
            </trkpt>
            <trkpt lat="47.437009849" lon="4.961726004">
                <ele>487.233521</ele>
            </trkpt>
            <trkpt lat="47.437249990" lon="4.961555433">
                <ele>482.557800</ele>
            </trkpt>
            <trkpt lat="47.437467249" lon="4.961400367">
                <ele>477.967194</ele>
            </trkpt>
            <trkpt lat="47.437610161" lon="4.961299617">
                <ele>474.947815</ele>
            </trkpt>
            <trkpt lat="47.437741254" lon="4.961223174">
                <ele>473.813690</ele>
            </trkpt>
            <trkpt lat="47.437935546" lon="4.961091746">
                <ele>477.365631</ele>
            </trkpt>
            <trkpt lat="47.438095473" lon="4.960983535">
                <ele>480.562012</ele>
            </trkpt>
            <trkpt lat="47.438306697" lon="4.960844731">
                <ele>483.876251</ele>
            </trkpt>
            <trkpt lat="47.438455224" lon="4.960744232">
                <ele>485.663757</ele>
            </trkpt>
            <trkpt lat="47.438622024" lon="4.960643984">
                <ele>487.284424</ele>
                <time>2017-04-13T06:40:23Z</time>
            </trkpt>
            <trkpt lat="47.438825034" lon="4.960516999">
                <ele>483.198761</ele>
                <time>2017-04-13T06:40:23Z</time>
            </trkpt>
            <trkpt lat="47.438936429" lon="4.960859148">
                <ele>486.895996</ele>
            </trkpt>
            <trkpt lat="47.439008681" lon="4.961144635">
                <ele>489.388916</ele>
            </trkpt>
            <trkpt lat="47.439089986" lon="4.961456023">
                <ele>491.755371</ele>
                <time>2017-04-13T06:40:23Z</time>
            </trkpt>
            <trkpt lat="47.439190149" lon="4.961825078">
                <ele>492.587585</ele>
            </trkpt>
            <trkpt lat="47.439304395" lon="4.962245263">
                <ele>493.679321</ele>
            </trkpt>
            <trkpt lat="47.439392153" lon="4.962589508">
                <ele>494.682617</ele>
            </trkpt>
            <trkpt lat="47.439464238" lon="4.962883210">
                <ele>496.077301</ele>
            </trkpt>
            <trkpt lat="47.439547637" lon="4.963177498">
                <ele>496.933746</ele>
            </trkpt>
            <trkpt lat="47.439625086" lon="4.963479834">
                <ele>497.666107</ele>
            </trkpt>
            <trkpt lat="47.439702451" lon="4.963790383">
                <ele>498.585327</ele>
            </trkpt>
            <trkpt lat="47.439784426" lon="4.964142675">
                <ele>500.752441</ele>
            </trkpt>
            <trkpt lat="47.439861624" lon="4.964461522">
                <ele>503.506256</ele>
            </trkpt>
            <trkpt lat="47.439938737" lon="4.964780370">
                <ele>506.572754</ele>
            </trkpt>
            <trkpt lat="47.440026579" lon="4.965124615">
                <ele>507.960510</ele>
            </trkpt>
            <trkpt lat="47.440114589" lon="4.965460561">
                <ele>510.897247</ele>
                <time>2017-04-13T06:40:23Z</time>
            </trkpt>
            <trkpt lat="47.440196900" lon="4.965796340">
                <ele>512.172241</ele>
                <time>2017-04-13T06:40:23Z</time>
            </trkpt>
            <trkpt lat="47.440304020" lon="4.966033716">
                <ele>513.263000</ele>
                <time>2017-04-13T06:40:23Z</time>
            </trkpt>
            <trkpt lat="47.440428743" lon="4.966238905">
                <ele>513.282837</ele>
                <time>2017-04-13T06:40:23Z</time>
            </trkpt>
            <trkpt lat="47.440546509" lon="4.966501677">
                <ele>514.470764</ele>
                <time>2017-04-13T06:40:23Z</time>
            </trkpt>
            <trkpt lat="47.440698976" lon="4.966724804">
                <ele>516.098572</ele>
            </trkpt>
            <trkpt lat="47.440839792" lon="4.966963856">
                <ele>515.500366</ele>
                <time>2017-04-13T06:40:23Z</time>
            </trkpt>
            <trkpt lat="47.441001981" lon="4.967253786">
                <ele>515.281738</ele>
                <time>2017-04-13T06:40:23Z</time>
            </trkpt>
            <trkpt lat="47.441137182" lon="4.967492586">
                <ele>517.201294</ele>
            </trkpt>
            <trkpt lat="47.441277998" lon="4.967731722">
                <ele>516.364136</ele>
                <time>2017-04-13T06:40:23Z</time>
            </trkpt>
            <trkpt lat="47.441463908" lon="4.967964739">
                <ele>515.873962</ele>
                <time>2017-04-13T06:40:23Z</time>
            </trkpt>
            <trkpt lat="47.441639258" lon="4.968172358">
                <ele>516.952393</ele>
                <time>2017-04-13T06:40:23Z</time>
            </trkpt>
            <trkpt lat="47.441771273" lon="4.968303284">
                <ele>517.543762</ele>
                <time>2017-04-13T06:40:23Z</time>
            </trkpt>
            <trkpt lat="47.441992806" lon="4.968455164">
                <ele>518.181274</ele>
                <time>2017-04-13T06:40:23Z</time>
            </trkpt>
            <trkpt lat="47.441959279" lon="4.968196498">
                <ele>517.018738</ele>
                <time>2017-04-13T06:40:23Z</time>
            </trkpt>
            <trkpt lat="47.441886272" lon="4.967944119">
                <ele>515.585815</ele>
                <time>2017-04-13T06:40:23Z</time>
            </trkpt>
            <trkpt lat="47.441801699" lon="4.967707833">
                <ele>513.237366</ele>
                <time>2017-04-13T06:40:23Z</time>
            </trkpt>
            <trkpt lat="47.441765154" lon="4.967332911">
                <ele>508.007813</ele>
                <time>2017-04-13T06:40:23Z</time>
            </trkpt>
            <trkpt lat="47.441755012" lon="4.966944996">
                <ele>500.802490</ele>
                <time>2017-04-13T06:40:23Z</time>
            </trkpt>
            <trkpt lat="47.441726681" lon="4.966551634">
                <ele>492.697235</ele>
                <time>2017-04-13T06:40:23Z</time>
            </trkpt>
            <trkpt lat="47.441735147" lon="4.966178890">
                <ele>486.630310</ele>
                <time>2017-04-13T06:40:23Z</time>
            </trkpt>
            <trkpt lat="47.441744534" lon="4.965764824">
                <ele>477.974060</ele>
                <time>2017-04-13T06:40:23Z</time>
            </trkpt>
            <trkpt lat="47.441741768" lon="4.965391578">
                <ele>473.804260</ele>
                <time>2017-04-13T06:40:23Z</time>
            </trkpt>
            <trkpt lat="47.441674881" lon="4.965114640">
                <ele>473.327515</ele>
                <time>2017-04-13T06:40:23Z</time>
            </trkpt>
            <trkpt lat="47.441552840" lon="4.964793613">
                <ele>470.750793</ele>
            </trkpt>
            <trkpt lat="47.441431135" lon="4.964455906">
                <ele>467.277344</ele>
            </trkpt>
            <trkpt lat="47.441287301" lon="4.964100597">
                <ele>460.773010</ele>
                <time>2017-04-13T06:40:23Z</time>
            </trkpt>
            <trkpt lat="47.441280009" lon="4.963677395">
                <ele>456.727997</ele>
            </trkpt>
            <trkpt lat="47.441289984" lon="4.963238519">
                <ele>449.642639</ele>
            </trkpt>
            <trkpt lat="47.441298617" lon="4.962857477">
                <ele>441.627136</ele>
                <time>2017-04-13T06:40:23Z</time>
            </trkpt>
            <trkpt lat="47.441311823" lon="4.962522371">
                <ele>438.102509</ele>
            </trkpt>
            <trkpt lat="47.441324388" lon="4.962216217">
                <ele>434.978180</ele>
                <time>2017-04-13T06:40:23Z</time>
            </trkpt>
            <trkpt lat="47.441335749" lon="4.961963883">
                <ele>431.732513</ele>
                <time>2017-04-13T06:40:23Z</time>
            </trkpt>
            <trkpt lat="47.441375356" lon="4.961704674">
                <ele>430.119995</ele>
                <time>2017-04-13T06:40:23Z</time>
            </trkpt>
            <trkpt lat="47.441431180" lon="4.961475269">
                <ele>430.028259</ele>
            </trkpt>
            <trkpt lat="47.441470614" lon="4.961224347">
                <ele>428.392487</ele>
                <time>2017-04-13T06:40:23Z</time>
            </trkpt>
            <trkpt lat="47.441500127" lon="4.960914862">
                <ele>424.917511</ele>
                <time>2017-04-13T06:40:23Z</time>
            </trkpt>
            <trkpt lat="47.441512312" lon="4.960625270">
                <ele>419.206879</ele>
            </trkpt>
            <trkpt lat="47.441519065" lon="4.960327119">
                <ele>412.657135</ele>
                <time>2017-04-13T06:40:23Z</time>
            </trkpt>
            <trkpt lat="47.441526856" lon="4.959983407">
                <ele>408.527039</ele>
                <time>2017-04-13T06:40:23Z</time>
            </trkpt>
            <trkpt lat="47.441535758" lon="4.959590024">
                <ele>405.792816</ele>
            </trkpt>
            <trkpt lat="47.441537828" lon="4.959250187">
                <ele>404.553986</ele>
                <time>2017-04-13T06:40:23Z</time>
            </trkpt>
            <trkpt lat="47.441555690" lon="4.958956707">
                <ele>404.461639</ele>
                <time>2017-04-13T06:40:23Z</time>
            </trkpt>
            <trkpt lat="47.441530041" lon="4.958598968">
                <ele>402.012115</ele>
                <time>2017-04-13T06:40:23Z</time>
            </trkpt>
            <trkpt lat="47.441496457" lon="4.958344413">
                <ele>399.408112</ele>
            </trkpt>
            <trkpt lat="47.441439337" lon="4.958134325">
                <ele>395.638123</ele>
                <time>2017-04-13T06:40:23Z</time>
            </trkpt>
            <trkpt lat="47.441359929" lon="4.957914850">
                <ele>392.160004</ele>
                <time>2017-04-13T06:40:23Z</time>
            </trkpt>
            <trkpt lat="47.441257546" lon="4.957715012">
                <ele>388.700012</ele>
                <time>2017-04-13T06:40:23Z</time>
            </trkpt>
            <trkpt lat="47.441257296" lon="4.957727399">
                <ele>388.760010</ele>
                <time>2017-03-12T10:26:40Z</time>
            </trkpt>
            <trkpt lat="47.441112521" lon="4.957662244">
                <ele>383.889374</ele>
                <time>2017-03-12T10:27:01Z</time>
            </trkpt>
            <trkpt lat="47.441016816" lon="4.957665830">
                <ele>381.029999</ele>
                <time>2017-03-12T10:27:03Z</time>
            </trkpt>
            <trkpt lat="47.440953326" lon="4.957488596">
                <ele>376.926575</ele>
                <time>2017-03-12T10:27:04Z</time>
            </trkpt>
            <trkpt lat="47.440906318" lon="4.957328754">
                <ele>377.324005</ele>
                <time>2017-03-12T10:27:09Z</time>
            </trkpt>
            <trkpt lat="47.440837022" lon="4.957159527">
                <ele>377.286011</ele>
                <time>2017-03-12T10:27:21Z</time>
            </trkpt>
            <trkpt lat="47.440766976" lon="4.957023427">
                <ele>376.723755</ele>
                <time>2017-03-12T10:27:25Z</time>
            </trkpt>
            <trkpt lat="47.440684943" lon="4.956919903">
                <ele>375.893005</ele>
                <time>2017-03-12T10:27:37Z</time>
            </trkpt>
            <trkpt lat="47.440557773" lon="4.956822451">
                <ele>374.970001</ele>
                <time>2017-03-12T10:27:43Z</time>
            </trkpt>
            <trkpt lat="47.440396704" lon="4.956731626">
                <ele>375.105499</ele>
                <time>2017-03-12T10:27:44Z</time>
            </trkpt>
            <trkpt lat="47.440245560" lon="4.956699325">
                <ele>375.343994</ele>
                <time>2017-03-12T10:27:58Z</time>
            </trkpt>
            <trkpt lat="47.440083179" lon="4.956666473">
                <ele>375.370270</ele>
                <time>2017-03-12T10:28:09Z</time>
            </trkpt>
            <trkpt lat="47.439926604" lon="4.956625615">
                <ele>374.643616</ele>
                <time>2017-03-12T10:28:22Z</time>
            </trkpt>
            <trkpt lat="47.439769467" lon="4.956609602">
                <ele>374.223999</ele>
                <time>2017-03-12T10:28:35Z</time>
            </trkpt>
            <trkpt lat="47.439590043" lon="4.956584204">
                <ele>373.343994</ele>
                <time>2017-03-12T10:28:40Z</time>
            </trkpt>
            <trkpt lat="47.439426538" lon="4.956601042">
                <ele>373.482361</ele>
                <time>2017-03-12T10:28:41Z</time>
            </trkpt>
            <trkpt lat="47.439275394" lon="4.956568743">
                <ele>371.979004</ele>
                <time>2017-03-12T10:28:42Z</time>
            </trkpt>
            <trkpt lat="47.439112638" lon="4.956552455">
                <ele>370.934998</ele>
                <time>2017-03-12T10:28:43Z</time>
            </trkpt>
            <trkpt lat="47.438989776" lon="4.956513254">
                <ele>369.084991</ele>
                <time>2017-03-12T10:29:31Z</time>
            </trkpt>
            <trkpt lat="47.438849870" lon="4.956481507">
                <ele>367.489990</ele>
                <time>2017-03-12T10:29:43Z</time>
            </trkpt>
            <trkpt lat="47.438709776" lon="4.956458042">
                <ele>366.241486</ele>
                <time>2017-03-12T10:29:44Z</time>
            </trkpt>
            <trkpt lat="47.438569495" lon="4.956442859">
                <ele>365.540131</ele>
                <time>2017-03-12T10:29:45Z</time>
            </trkpt>
            <trkpt lat="47.438428652" lon="4.956452520">
                <ele>365.703735</ele>
                <time>2017-03-12T10:29:46Z</time>
            </trkpt>
            <trkpt lat="47.438275823" lon="4.956494755">
                <ele>366.714508</ele>
                <time>2017-03-12T10:29:47Z</time>
            </trkpt>
            <trkpt lat="47.438111943" lon="4.956528156">
                <ele>365.187988</ele>
                <time>2017-03-12T10:30:00Z</time>
            </trkpt>
            <trkpt lat="47.437930458" lon="4.956593854">
                <ele>363.704987</ele>
                <time>2017-03-12T10:30:11Z</time>
            </trkpt>
            <trkpt lat="47.437804036" lon="4.956712001">
                <ele>363.415009</ele>
                <time>2017-03-12T10:30:17Z</time>
            </trkpt>
            <trkpt lat="47.437677802" lon="4.956821866">
                <ele>362.759003</ele>
                <time>2017-03-12T10:31:06Z</time>
            </trkpt>
            <trkpt lat="47.437527968" lon="4.956980315">
                <ele>362.565857</ele>
                <time>2017-03-12T10:31:17Z</time>
            </trkpt>
            <trkpt lat="47.437401546" lon="4.957098460">
                <ele>361.889008</ele>
                <time>2017-03-12T10:31:28Z</time>
            </trkpt>
            <trkpt lat="47.437263886" lon="4.957216052">
                <ele>360.235992</ele>
                <time>2017-03-12T10:31:29Z</time>
            </trkpt>
            <trkpt lat="47.437131657" lon="4.957342202">
                <ele>358.415009</ele>
                <time>2017-03-12T10:31:30Z</time>
            </trkpt>
            <trkpt lat="47.436988753" lon="4.957442954">
                <ele>355.822510</ele>
                <time>2017-03-12T10:31:31Z</time>
            </trkpt>
            <trkpt lat="47.436857836" lon="4.957511133">
                <ele>353.874359</ele>
                <time>2017-03-12T10:31:32Z</time>
            </trkpt>
            <trkpt lat="47.436705006" lon="4.957553364">
                <ele>352.723755</ele>
                <time>2017-03-12T10:31:47Z</time>
            </trkpt>
            <trkpt lat="47.436513407" lon="4.957568817">
                <ele>350.443115</ele>
                <time>2017-03-12T10:31:56Z</time>
            </trkpt>
            <trkpt lat="47.436345033" lon="4.957552251">
                <ele>349.035614</ele>
                <time>2017-03-12T10:31:57Z</time>
            </trkpt>
            <trkpt lat="47.436188270" lon="4.957519674">
                <ele>347.837433</ele>
                <time>2017-03-12T10:31:58Z</time>
            </trkpt>
            <trkpt lat="47.436031883" lon="4.957470536">
                <ele>345.939636</ele>
                <time>2017-03-12T10:31:59Z</time>
            </trkpt>
            <trkpt lat="47.435875120" lon="4.957437960">
                <ele>344.642487</ele>
                <time>2017-03-12T10:32:00Z</time>
            </trkpt>
            <trkpt lat="47.435723789" lon="4.957413941">
                <ele>343.682495</ele>
                <time>2017-03-12T10:32:08Z</time>
            </trkpt>
            <trkpt lat="47.435589502" lon="4.957382470">
                <ele>342.445007</ele>
                <time>2017-03-12T10:32:57Z</time>
            </trkpt>
            <trkpt lat="47.435438546" lon="4.957341890">
                <ele>341.091248</ele>
                <time>2017-03-12T10:33:10Z</time>
            </trkpt>
            <trkpt lat="47.435276165" lon="4.957309038">
                <ele>340.132385</ele>
                <time>2017-03-12T10:33:23Z</time>
            </trkpt>
            <trkpt lat="47.435102546" lon="4.957275635">
                <ele>339.154999</ele>
                <time>2017-03-12T10:33:42Z</time>
            </trkpt>
            <trkpt lat="47.434973315" lon="4.957269283">
                <ele>338.513763</ele>
                <time>2017-03-12T10:33:54Z</time>
            </trkpt>
            <trkpt lat="47.434864126" lon="4.957122985">
                <ele>335.265015</ele>
                <time>2017-03-12T10:34:10Z</time>
            </trkpt>
            <trkpt lat="47.434789585" lon="4.956936938">
                <ele>332.165009</ele>
                <time>2017-03-12T10:34:27Z</time>
            </trkpt>
            <trkpt lat="47.434779660" lon="4.956629716">
                <ele>327.459991</ele>
                <time>2017-03-12T10:34:45Z</time>
            </trkpt>
            <trkpt lat="47.434870684" lon="4.956335743">
                <ele>327.924988</ele>
            </trkpt>
            <trkpt lat="47.434899902" lon="4.956038733">
                <ele>329.619995</ele>
            </trkpt>
            <trkpt lat="47.434895593" lon="4.955731786">
                <ele>331.224060</ele>
                <time>2017-03-12T10:35:04Z</time>
            </trkpt>
            <trkpt lat="47.434845211" lon="4.955472317">
                <ele>331.579987</ele>
                <time>2017-03-12T10:35:19Z</time>
            </trkpt>
            <trkpt lat="47.434761864" lon="4.955178069">
                <ele>331.234497</ele>
                <time>2017-03-12T10:35:20Z</time>
            </trkpt>
            <trkpt lat="47.434660724" lon="4.954924399">
                <ele>331.591492</ele>
                <time>2017-03-12T10:35:37Z</time>
            </trkpt>
            <trkpt lat="47.434496654" lon="4.954717381">
                <ele>329.487946</ele>
            </trkpt>
            <trkpt lat="47.434364425" lon="4.954594827">
                <ele>326.512817</ele>
                <time>2017-03-12T10:35:52Z</time>
            </trkpt>
            <trkpt lat="47.434232383" lon="4.954463994">
                <ele>324.244385</ele>
                <time>2017-03-12T10:36:10Z</time>
            </trkpt>
            <trkpt lat="47.434105585" lon="4.954349999">
                <ele>324.154755</ele>
                <time>2017-03-12T10:36:29Z</time>
            </trkpt>
            <trkpt lat="47.433984031" lon="4.954252842">
                <ele>323.784882</ele>
                <time>2017-03-12T10:36:48Z</time>
            </trkpt>
            <trkpt lat="47.433857046" lon="4.954147128">
                <ele>323.149872</ele>
                <time>2017-03-12T10:36:58Z</time>
            </trkpt>
            <trkpt lat="47.433742047" lon="4.954008844">
                <ele>323.000000</ele>
                <time>2017-03-12T10:36:59Z</time>
            </trkpt>
            <trkpt lat="47.433632666" lon="4.953870836">
                <ele>323.000000</ele>
                <time>2017-03-12T10:37:00Z</time>
            </trkpt>
            <trkpt lat="47.433495940" lon="4.953698326">
                <ele>323.000000</ele>
                <time>2017-03-12T10:37:13Z</time>
            </trkpt>
            <trkpt lat="47.433393113" lon="4.953519192">
                <ele>323.002441</ele>
                <time>2017-03-12T10:37:29Z</time>
            </trkpt>
            <trkpt lat="47.433272868" lon="4.953364073">
                <ele>323.199493</ele>
                <time>2017-03-12T10:37:47Z</time>
            </trkpt>
            <trkpt lat="47.433141199" lon="4.953216684">
                <ele>323.536499</ele>
                <time>2017-03-12T10:38:02Z</time>
            </trkpt>
            <trkpt lat="47.433059162" lon="4.953113180">
                <ele>323.769989</ele>
                <time>2017-03-12T10:38:07Z</time>
            </trkpt>
            <trkpt lat="47.432979752" lon="4.953142443">
                <ele>323.945007</ele>
                <time>2017-03-12T10:38:08Z</time>
            </trkpt>
            <trkpt lat="47.432860067" lon="4.952962484">
                <ele>325.350250</ele>
                <time>2017-03-12T10:38:09Z</time>
            </trkpt>
            <trkpt lat="47.432773354" lon="4.953065997">
                <ele>326.683136</ele>
                <time>2017-03-12T10:38:10Z</time>
            </trkpt>
            <trkpt lat="47.432765001" lon="4.953346029">
                <ele>326.571259</ele>
                <time>2017-03-12T10:38:22Z</time>
            </trkpt>
            <trkpt lat="47.432707921" lon="4.953515679">
                <ele>327.151245</ele>
                <time>2017-03-12T10:38:32Z</time>
            </trkpt>
            <trkpt lat="47.432710687" lon="4.953529928">
                <ele>327.095001</ele>
                <time>2017-03-12T10:38:33Z</time>
            </trkpt>
            <trkpt lat="47.432628544" lon="4.953662110">
                <ele>328.114990</ele>
                <time>2017-03-12T10:38:48Z</time>
            </trkpt>
            <trkpt lat="47.432561824" lon="4.953774344">
                <ele>328.921265</ele>
                <time>2017-03-12T10:39:01Z</time>
            </trkpt>
            <trkpt lat="47.432528211" lon="4.953957554">
                <ele>329.120056</ele>
                <time>2017-03-12T10:39:12Z</time>
            </trkpt>
            <trkpt lat="47.432421679" lon="4.953948269">
                <ele>332.311676</ele>
                <time>2017-03-12T10:39:32Z</time>
            </trkpt>
            <trkpt lat="47.432419953" lon="4.953769866">
                <ele>332.821686</ele>
                <time>2017-03-12T10:39:45Z</time>
            </trkpt>
            <trkpt lat="47.432418825" lon="4.953570857">
                <ele>333.340118</ele>
                <time>2017-03-12T10:39:46Z</time>
            </trkpt>
            <trkpt lat="47.432391252" lon="4.953365810">
                <ele>334.809265</ele>
                <time>2017-03-12T10:40:01Z</time>
            </trkpt>
            <trkpt lat="47.432370884" lon="4.953169422">
                <ele>335.971832</ele>
                <time>2017-03-12T10:40:12Z</time>
            </trkpt>
            <trkpt lat="47.432368118" lon="4.952866668">
                <ele>334.796722</ele>
                <time>2017-03-12T10:40:27Z</time>
            </trkpt>
            <trkpt lat="47.432350097" lon="4.952625521">
                <ele>334.176666</ele>
                <time>2017-03-12T10:40:38Z</time>
            </trkpt>
            <trkpt lat="47.432280573" lon="4.952469827">
                <ele>335.477386</ele>
                <time>2017-03-12T10:40:40Z</time>
            </trkpt>
            <trkpt lat="47.432173248" lon="4.952240740">
                <ele>335.916992</ele>
                <time>2017-03-12T10:40:56Z</time>
            </trkpt>
            <trkpt lat="47.432053188" lon="4.952077347">
                <ele>336.537811</ele>
                <time>2017-03-12T10:41:07Z</time>
            </trkpt>
            <trkpt lat="47.431916459" lon="4.951904848">
                <ele>337.479370</ele>
                <time>2017-03-12T10:41:08Z</time>
            </trkpt>
            <trkpt lat="47.431774485" lon="4.951715512">
                <ele>337.789246</ele>
                <time>2017-03-12T10:41:09Z</time>
            </trkpt>
            <trkpt lat="47.431655547" lon="4.951502439">
                <ele>337.317993</ele>
                <time>2017-03-12T10:41:26Z</time>
            </trkpt>
            <trkpt lat="47.431542040" lon="4.951297922">
                <ele>337.266998</ele>
                <time>2017-03-12T10:41:41Z</time>
            </trkpt>
            <trkpt lat="47.431445762" lon="4.951077672">
                <ele>336.264496</ele>
                <time>2017-03-12T10:41:57Z</time>
            </trkpt>
            <trkpt lat="47.431349298" lon="4.950865703">
                <ele>336.217010</ele>
                <time>2017-03-12T10:42:14Z</time>
            </trkpt>
            <trkpt lat="47.431229610" lon="4.950685755">
                <ele>336.567993</ele>
                <time>2017-03-12T10:42:32Z</time>
            </trkpt>
            <trkpt lat="47.431117706" lon="4.950503726">
                <ele>337.161255</ele>
                <time>2017-03-12T10:42:46Z</time>
            </trkpt>
            <trkpt lat="47.431013519" lon="4.950351175">
                <ele>338.301727</ele>
                <time>2017-03-12T10:42:56Z</time>
            </trkpt>
            <trkpt lat="47.430925985" lon="4.950181790">
                <ele>339.047882</ele>
                <time>2017-03-12T10:52:58Z</time>
            </trkpt>
            <trkpt lat="47.430821741" lon="4.950045822">
                <ele>340.467346</ele>
                <time>2017-03-12T10:53:15Z</time>
            </trkpt>
            <trkpt lat="47.430690648" lon="4.949953118">
                <ele>343.277313</ele>
                <time>2017-03-12T10:53:29Z</time>
            </trkpt>
            <trkpt lat="47.430570368" lon="4.949856307">
                <ele>345.819824</ele>
                <time>2017-03-12T10:53:42Z</time>
            </trkpt>
            <trkpt lat="47.430456961" lon="4.949768214">
                <ele>348.056183</ele>
                <time>2017-03-12T10:53:55Z</time>
            </trkpt>
            <trkpt lat="47.430343470" lon="4.949694788">
                <ele>350.501801</ele>
                <time>2017-03-12T10:54:09Z</time>
            </trkpt>
            <trkpt lat="47.430257136" lon="4.949614238">
                <ele>352.517487</ele>
                <time>2017-03-12T10:54:21Z</time>
            </trkpt>
            <trkpt lat="47.430123445" lon="4.949505273">
                <ele>355.864990</ele>
                <time>2017-03-12T10:54:37Z</time>
            </trkpt>
            <trkpt lat="47.430003907" lon="4.949415425">
                <ele>358.880005</ele>
                <time>2017-03-12T10:54:51Z</time>
            </trkpt>
            <trkpt lat="47.429915238" lon="4.949342497">
                <ele>361.065002</ele>
                <time>2017-03-12T10:55:03Z</time>
            </trkpt>
            <trkpt lat="47.429907443" lon="4.949333947">
                <ele>361.270020</ele>
                <time>2017-03-12T10:55:04Z</time>
            </trkpt>
            <trkpt lat="47.429812560" lon="4.949211655">
                <ele>363.394989</ele>
                <time>2017-03-12T10:55:18Z</time>
            </trkpt>
            <trkpt lat="47.429721113" lon="4.949094141">
                <ele>365.517517</ele>
                <time>2017-03-12T10:55:33Z</time>
            </trkpt>
            <trkpt lat="47.429636708" lon="4.949006634">
                <ele>367.617493</ele>
                <time>2017-03-12T10:55:45Z</time>
            </trkpt>
            <trkpt lat="47.429534718" lon="4.949019419">
                <ele>371.149994</ele>
                <time>2017-03-12T10:56:05Z</time>
            </trkpt>
            <trkpt lat="47.429517877" lon="4.949267273">
                <ele>373.774994</ele>
                <time>2017-03-12T10:56:19Z</time>
            </trkpt>
            <trkpt lat="47.429500661" lon="4.949531687">
                <ele>376.549988</ele>
                <time>2017-03-12T10:56:34Z</time>
            </trkpt>
            <trkpt lat="47.429500489" lon="4.949788646">
                <ele>379.102112</ele>
                <time>2017-03-12T10:56:48Z</time>
            </trkpt>
            <trkpt lat="47.429494697" lon="4.950045330">
                <ele>382.262177</ele>
                <time>2017-03-12T10:57:01Z</time>
            </trkpt>
            <trkpt lat="47.429488343" lon="4.950326855">
                <ele>385.728058</ele>
                <time>2017-03-12T10:57:16Z</time>
            </trkpt>
            <trkpt lat="47.429488543" lon="4.950567254">
                <ele>389.529510</ele>
                <time>2017-03-12T10:57:48Z</time>
            </trkpt>
            <trkpt lat="47.429522080" lon="4.950825866">
                <ele>392.730560</ele>
                <time>2017-03-12T10:58:01Z</time>
            </trkpt>
            <trkpt lat="47.429572473" lon="4.951085305">
                <ele>395.357513</ele>
                <time>2017-03-12T10:58:13Z</time>
            </trkpt>
            <trkpt lat="47.429598905" lon="4.951353986">
                <ele>398.613098</ele>
                <time>2017-03-12T10:58:28Z</time>
            </trkpt>
            <trkpt lat="47.429685991" lon="4.951538493">
                <ele>399.009003</ele>
                <time>2017-03-12T10:58:41Z</time>
            </trkpt>
            <trkpt lat="47.429694050" lon="4.951679807">
                <ele>401.019501</ele>
                <time>2017-03-12T10:58:55Z</time>
            </trkpt>
            <trkpt lat="47.429605085" lon="4.951633998">
                <ele>402.716003</ele>
                <time>2017-03-12T10:58:56Z</time>
            </trkpt>
            <trkpt lat="47.429522860" lon="4.951538784">
                <ele>403.529694</ele>
                <time>2017-03-12T10:59:11Z</time>
            </trkpt>
            <trkpt lat="47.429422298" lon="4.951433781">
                <ele>404.823059</ele>
                <time>2017-03-12T10:59:26Z</time>
            </trkpt>
            <trkpt lat="47.429298100" lon="4.951279085">
                <ele>406.991241</ele>
                <time>2017-03-12T10:59:40Z</time>
            </trkpt>
            <trkpt lat="47.429188341" lon="4.951157654">
                <ele>409.268372</ele>
                <time>2017-03-12T10:59:56Z</time>
            </trkpt>
            <trkpt lat="47.429062288" lon="4.951010557">
                <ele>411.617737</ele>
                <time>2017-03-12T11:00:11Z</time>
            </trkpt>
            <trkpt lat="47.428894322" lon="4.950797679">
                <ele>414.393738</ele>
                <time>2017-03-12T11:00:23Z</time>
            </trkpt>
            <trkpt lat="47.428772533" lon="4.950621575">
                <ele>416.054993</ele>
                <time>2017-03-12T11:00:38Z</time>
            </trkpt>
            <trkpt lat="47.428699024" lon="4.950421415">
                <ele>415.596252</ele>
                <time>2017-03-12T11:00:51Z</time>
            </trkpt>
            <trkpt lat="47.428643368" lon="4.950260315">
                <ele>415.200012</ele>
                <time>2017-03-12T11:01:02Z</time>
            </trkpt>
            <trkpt lat="47.428584946" lon="4.950107848">
                <ele>415.639984</ele>
                <time>2017-03-12T11:01:12Z</time>
            </trkpt>
            <trkpt lat="47.428507749" lon="4.949920094">
                <ele>416.255005</ele>
                <time>2017-03-12T11:01:25Z</time>
            </trkpt>
            <trkpt lat="47.428408340" lon="4.949734015">
                <ele>417.515015</ele>
                <time>2017-03-12T11:01:39Z</time>
            </trkpt>
            <trkpt lat="47.428360479" lon="4.949665284">
                <ele>418.364990</ele>
                <time>2017-03-12T11:01:45Z</time>
            </trkpt>
            <trkpt lat="47.428263249" lon="4.949513990">
                <ele>420.248260</ele>
                <time>2017-03-12T11:01:57Z</time>
            </trkpt>
            <trkpt lat="47.428143349" lon="4.949357427">
                <ele>422.994995</ele>
                <time>2017-03-12T11:02:13Z</time>
            </trkpt>
            <trkpt lat="47.428012048" lon="4.949193502">
                <ele>425.845001</ele>
                <time>2017-03-12T11:02:24Z</time>
            </trkpt>
            <trkpt lat="47.427884555" lon="4.949044939">
                <ele>428.622498</ele>
                <time>2017-03-12T11:02:39Z</time>
            </trkpt>
            <trkpt lat="47.427747343" lon="4.948836397">
                <ele>431.666260</ele>
                <time>2017-03-12T11:02:54Z</time>
            </trkpt>
            <trkpt lat="47.427638563" lon="4.948793912">
                <ele>434.799377</ele>
                <time>2017-03-12T11:03:08Z</time>
            </trkpt>
            <trkpt lat="47.427623964" lon="4.948942399">
                <ele>435.942078</ele>
                <time>2017-03-12T11:03:10Z</time>
            </trkpt>
            <trkpt lat="47.427653381" lon="4.949134486">
                <ele>436.670013</ele>
                <time>2017-03-12T11:03:19Z</time>
            </trkpt>
            <trkpt lat="47.427704338" lon="4.949369075">
                <ele>437.019989</ele>
                <time>2017-03-12T11:03:37Z</time>
            </trkpt>
            <trkpt lat="47.427778144" lon="4.949588205">
                <ele>436.519989</ele>
                <time>2017-03-12T11:03:45Z</time>
            </trkpt>
            <trkpt lat="47.427665768" lon="4.949582699">
                <ele>440.019989</ele>
                <time>2017-03-12T11:04:01Z</time>
            </trkpt>
            <trkpt lat="47.427526233" lon="4.949534418">
                <ele>444.039673</ele>
                <time>2017-03-12T11:04:04Z</time>
            </trkpt>
            <trkpt lat="47.427408987" lon="4.949495518">
                <ele>447.338196</ele>
                <time>2017-03-12T11:04:31Z</time>
            </trkpt>
            <trkpt lat="47.427246790" lon="4.949454415">
                <ele>452.063629</ele>
                <time>2017-03-12T11:04:43Z</time>
            </trkpt>
            <trkpt lat="47.427105959" lon="4.949293714">
                <ele>453.763763</ele>
                <time>2017-03-12T11:04:57Z</time>
            </trkpt>
            <trkpt lat="47.427006288" lon="4.949144232">
                <ele>454.072510</ele>
                <time>2017-03-12T11:05:11Z</time>
            </trkpt>
            <trkpt lat="47.426895594" lon="4.949064209">
                <ele>455.285004</ele>
                <time>2017-03-12T11:05:12Z</time>
            </trkpt>
            <trkpt lat="47.426704182" lon="4.949071411">
                <ele>458.413513</ele>
                <time>2017-03-12T11:05:26Z</time>
            </trkpt>
            <trkpt lat="47.426606609" lon="4.949157808">
                <ele>460.110931</ele>
                <time>2017-03-12T11:05:34Z</time>
            </trkpt>
            <trkpt lat="47.426507167" lon="4.949327002">
                <ele>462.824005</ele>
                <time>2017-03-12T11:05:35Z</time>
            </trkpt>
            <trkpt lat="47.426575167" lon="4.949554132">
                <ele>464.669189</ele>
                <time>2017-03-12T11:05:37Z</time>
            </trkpt>
            <trkpt lat="47.426666576" lon="4.949740965">
                <ele>465.722198</ele>
                <time>2017-03-12T11:05:38Z</time>
            </trkpt>
            <trkpt lat="47.426709858" lon="4.950066351">
                <ele>468.696014</ele>
                <time>2017-03-12T11:05:39Z</time>
            </trkpt>
            <trkpt lat="47.426573326" lon="4.950134260">
                <ele>470.406372</ele>
                <time>2017-03-12T11:05:53Z</time>
            </trkpt>
            <trkpt lat="47.426457400" lon="4.950286067">
                <ele>472.639984</ele>
                <time>2017-03-12T11:06:47Z</time>
            </trkpt>
            <trkpt lat="47.426387359" lon="4.950398678">
                <ele>474.140015</ele>
                <time>2017-03-12T11:06:58Z</time>
            </trkpt>
            <trkpt lat="47.426511919" lon="4.950612003">
                <ele>475.160004</ele>
                <time>2017-03-12T11:07:13Z</time>
            </trkpt>
            <trkpt lat="47.426636851" lon="4.950808770">
                <ele>476.014984</ele>
                <time>2017-03-12T11:07:28Z</time>
            </trkpt>
            <trkpt lat="47.426717208" lon="4.950986775">
                <ele>476.526886</ele>
                <time>2017-03-12T11:07:42Z</time>
            </trkpt>
            <trkpt lat="47.426836147" lon="4.951199828">
                <ele>476.017487</ele>
                <time>2017-03-12T11:08:01Z</time>
            </trkpt>
            <trkpt lat="47.426954339" lon="4.951446000">
                <ele>476.310760</ele>
                <time>2017-03-12T11:08:02Z</time>
            </trkpt>
            <trkpt lat="47.427046306" lon="4.951607999">
                <ele>476.424988</ele>
                <time>2017-03-12T11:08:03Z</time>
            </trkpt>
            <trkpt lat="47.427155129" lon="4.951770824">
                <ele>476.005768</ele>
                <time>2017-03-12T11:08:04Z</time>
            </trkpt>
            <trkpt lat="47.427236044" lon="4.951923993">
                <ele>475.697510</ele>
                <time>2017-03-12T11:08:26Z</time>
            </trkpt>
            <trkpt lat="47.427343745" lon="4.952136499">
                <ele>475.859985</ele>
                <time>2017-03-12T11:08:38Z</time>
            </trkpt>
            <trkpt lat="47.427446200" lon="4.952332170">
                <ele>476.095490</ele>
                <time>2017-03-12T11:08:39Z</time>
            </trkpt>
            <trkpt lat="47.427526928" lon="4.952493620">
                <ele>476.113007</ele>
                <time>2017-03-12T11:08:59Z</time>
            </trkpt>
            <trkpt lat="47.427607656" lon="4.952655071">
                <ele>475.842255</ele>
                <time>2017-03-12T11:09:14Z</time>
            </trkpt>
            <trkpt lat="47.427694376" lon="4.952800238">
                <ele>475.453003</ele>
                <time>2017-03-12T11:09:16Z</time>
            </trkpt>
            <trkpt lat="47.427758621" lon="4.952944303">
                <ele>475.607819</ele>
                <time>2017-03-12T11:09:35Z</time>
            </trkpt>
            <trkpt lat="47.427850960" lon="4.953089747">
                <ele>475.350128</ele>
                <time>2017-03-12T11:09:38Z</time>
            </trkpt>
            <trkpt lat="47.427926817" lon="4.953217805">
                <ele>475.253876</ele>
                <time>2017-03-12T11:09:47Z</time>
            </trkpt>
            <trkpt lat="47.427985443" lon="4.953361595">
                <ele>475.534760</ele>
                <time>2017-03-12T11:09:48Z</time>
            </trkpt>
            <trkpt lat="47.428066169" lon="4.953523049">
                <ele>475.436798</ele>
                <time>2017-03-12T11:09:49Z</time>
            </trkpt>
            <trkpt lat="47.428152701" lon="4.953676499">
                <ele>474.563812</ele>
                <time>2017-03-12T11:10:03Z</time>
            </trkpt>
            <trkpt lat="47.428249910" lon="4.953855340">
                <ele>473.171997</ele>
                <time>2017-03-12T11:10:20Z</time>
            </trkpt>
            <trkpt lat="47.428358355" lon="4.954034734">
                <ele>471.739868</ele>
                <time>2017-03-12T11:10:35Z</time>
            </trkpt>
            <trkpt lat="47.428265093" lon="4.954121858">
                <ele>473.094788</ele>
                <time>2017-03-12T11:10:46Z</time>
            </trkpt>
            <trkpt lat="47.428153273" lon="4.954149005">
                <ele>474.662994</ele>
                <time>2017-03-12T11:10:53Z</time>
            </trkpt>
            <trkpt lat="47.428006436" lon="4.954174954">
                <ele>476.664490</ele>
                <time>2017-03-12T11:11:07Z</time>
            </trkpt>
            <trkpt lat="47.427834934" lon="4.954221854">
                <ele>478.305267</ele>
                <time>2017-03-12T11:11:21Z</time>
            </trkpt>
            <trkpt lat="47.427672310" lon="4.954274601">
                <ele>478.475006</ele>
                <time>2017-03-12T11:11:26Z</time>
            </trkpt>
            <trkpt lat="47.427536337" lon="4.954317661">
                <ele>478.654999</ele>
                <time>2017-03-12T11:11:27Z</time>
            </trkpt>
            <trkpt lat="47.427405608" lon="4.954377556">
                <ele>478.262512</ele>
                <time>2017-03-12T11:11:43Z</time>
            </trkpt>
            <trkpt lat="47.427263642" lon="4.954436899">
                <ele>478.330994</ele>
                <time>2017-03-12T11:12:00Z</time>
            </trkpt>
            <trkpt lat="47.427126733" lon="4.954521357">
                <ele>478.450500</ele>
                <time>2017-03-12T11:12:06Z</time>
            </trkpt>
            <trkpt lat="47.427006493" lon="4.954614922">
                <ele>478.559753</ele>
                <time>2017-03-12T11:12:07Z</time>
            </trkpt>
            <trkpt lat="47.426891685" lon="4.954717042">
                <ele>478.653992</ele>
                <time>2017-03-12T11:12:08Z</time>
            </trkpt>
            <trkpt lat="47.426788114" lon="4.954819713">
                <ele>478.927002</ele>
                <time>2017-03-12T11:12:24Z</time>
            </trkpt>
            <trkpt lat="47.426649894" lon="4.954962127">
                <ele>477.040009</ele>
                <time>2017-03-12T11:12:42Z</time>
            </trkpt>
            <trkpt lat="47.426512797" lon="4.955054862">
                <ele>476.033264</ele>
                <time>2017-03-12T11:13:05Z</time>
            </trkpt>
            <trkpt lat="47.426363340" lon="4.955196723">
                <ele>474.724060</ele>
                <time>2017-03-12T11:13:20Z</time>
            </trkpt>
            <trkpt lat="47.426213882" lon="4.955338583">
                <ele>474.731140</ele>
                <time>2017-03-12T11:13:36Z</time>
            </trkpt>
            <trkpt lat="47.426064986" lon="4.955455603">
                <ele>475.375488</ele>
                <time>2017-03-12T11:13:50Z</time>
            </trkpt>
            <trkpt lat="47.425909909" lon="4.955597186">
                <ele>474.040009</ele>
                <time>2017-03-12T11:13:55Z</time>
            </trkpt>
            <trkpt lat="47.425806525" lon="4.955691574">
                <ele>473.822510</ele>
                <time>2017-03-12T11:13:59Z</time>
            </trkpt>
            <trkpt lat="47.425668678" lon="4.955817424">
                <ele>474.156250</ele>
                <time>2017-03-12T11:14:00Z</time>
            </trkpt>
            <trkpt lat="47.425525588" lon="4.955926438">
                <ele>473.736237</ele>
                <time>2017-03-12T11:14:09Z</time>
            </trkpt>
            <trkpt lat="47.425393173" lon="4.956060842">
                <ele>473.412811</ele>
                <time>2017-03-12T11:14:25Z</time>
            </trkpt>
            <trkpt lat="47.425226858" lon="4.956201869">
                <ele>472.674744</ele>
                <time>2017-03-12T11:14:44Z</time>
            </trkpt>
            <trkpt lat="47.425056584" lon="4.956289167">
                <ele>469.874390</ele>
                <time>2017-03-12T11:15:04Z</time>
            </trkpt>
            <trkpt lat="47.424942590" lon="4.956107112">
                <ele>472.538574</ele>
                <time>2017-03-12T11:15:19Z</time>
            </trkpt>
            <trkpt lat="47.424854832" lon="4.955911059">
                <ele>473.904999</ele>
                <time>2017-03-12T11:15:32Z</time>
            </trkpt>
            <trkpt lat="47.424746370" lon="4.955663206">
                <ele>474.399231</ele>
                <time>2017-03-12T11:15:48Z</time>
            </trkpt>
            <trkpt lat="47.424664043" lon="4.955469698">
                <ele>474.258514</ele>
                <time>2017-03-12T11:15:56Z</time>
            </trkpt>
            <trkpt lat="47.424573580" lon="4.955241465">
                <ele>473.636017</ele>
                <time>2017-03-12T11:16:10Z</time>
            </trkpt>
            <trkpt lat="47.424494353" lon="4.955013785">
                <ele>473.080383</ele>
                <time>2017-03-12T11:16:26Z</time>
            </trkpt>
            <trkpt lat="47.424408571" lon="4.954827226">
                <ele>472.269257</ele>
                <time>2017-03-12T11:16:45Z</time>
            </trkpt>
            <trkpt lat="47.424333652" lon="4.954657778">
                <ele>471.140015</ele>
                <time>2017-03-12T11:17:02Z</time>
            </trkpt>
            <trkpt lat="47.424259108" lon="4.954471772">
                <ele>469.778137</ele>
                <time>2017-03-12T11:17:15Z</time>
            </trkpt>
            <trkpt lat="47.424179692" lon="4.954252374">
                <ele>468.982513</ele>
                <time>2017-03-12T11:17:16Z</time>
            </trkpt>
            <trkpt lat="47.424113620" lon="4.954105429">
                <ele>468.497498</ele>
                <time>2017-03-12T11:17:17Z</time>
            </trkpt>
            <trkpt lat="47.423949131" lon="4.954000693">
                <ele>466.035004</ele>
                <time>2017-03-12T11:17:33Z</time>
            </trkpt>
            <trkpt lat="47.423815965" lon="4.953919562">
                <ele>466.431763</ele>
                <time>2017-03-12T11:17:51Z</time>
            </trkpt>
            <trkpt lat="47.423677180" lon="4.953838156">
                <ele>467.210236</ele>
                <time>2017-03-12T11:18:09Z</time>
            </trkpt>
            <trkpt lat="47.423510114" lon="4.953763651">
                <ele>467.895203</ele>
            </trkpt>
            <trkpt lat="47.423343610" lon="4.953664309">
                <ele>472.622253</ele>
                <time>2017-03-12T11:18:26Z</time>
            </trkpt>
            <trkpt lat="47.423175982" lon="4.953614642">
                <ele>476.373199</ele>
                <time>2017-03-12T11:18:41Z</time>
            </trkpt>
            <trkpt lat="47.422981763" lon="4.953746013">
                <ele>477.893738</ele>
                <time>2017-03-12T11:18:59Z</time>
            </trkpt>
            <trkpt lat="47.422799904" lon="4.953828260">
                <ele>479.762390</ele>
                <time>2017-03-12T11:19:15Z</time>
            </trkpt>
            <trkpt lat="47.422616923" lon="4.953960181">
                <ele>481.570251</ele>
                <time>2017-03-12T11:19:32Z</time>
            </trkpt>
            <trkpt lat="47.422421955" lon="4.954124666">
                <ele>481.584076</ele>
                <time>2017-03-12T11:19:50Z</time>
            </trkpt>
            <trkpt lat="47.422259764" lon="4.954332199">
                <ele>481.320313</ele>
                <time>2017-03-12T11:20:06Z</time>
            </trkpt>
            <trkpt lat="47.422114054" lon="4.954557116">
                <ele>481.643250</ele>
                <time>2017-03-12T11:20:22Z</time>
            </trkpt>
            <trkpt lat="47.421979768" lon="4.954774304">
                <ele>480.211243</ele>
                <time>2017-03-12T11:20:39Z</time>
            </trkpt>
            <trkpt lat="47.421851850" lon="4.954958652">
                <ele>479.588745</ele>
                <time>2017-03-12T11:20:52Z</time>
            </trkpt>
            <trkpt lat="47.421729550" lon="4.955143274">
                <ele>479.655640</ele>
                <time>2017-03-12T11:21:07Z</time>
            </trkpt>
            <trkpt lat="47.421619424" lon="4.955287053">
                <ele>479.507996</ele>
                <time>2017-03-12T11:21:08Z</time>
            </trkpt>
            <trkpt lat="47.421498621" lon="4.955405443">
                <ele>477.613892</ele>
                <time>2017-03-12T11:21:09Z</time>
            </trkpt>
            <trkpt lat="47.421347289" lon="4.955381437">
                <ele>479.864014</ele>
                <time>2017-03-12T11:21:10Z</time>
            </trkpt>
            <trkpt lat="47.421196893" lon="4.955316036">
                <ele>483.070007</ele>
                <time>2017-03-12T11:21:11Z</time>
            </trkpt>
            <trkpt lat="47.421057173" lon="4.955276024">
                <ele>485.020996</ele>
                <time>2017-03-12T11:21:29Z</time>
            </trkpt>
            <trkpt lat="47.420928877" lon="4.955228286">
                <ele>487.248993</ele>
                <time>2017-03-12T11:21:36Z</time>
            </trkpt>
            <trkpt lat="47.420801330" lon="4.955147432">
                <ele>489.229492</ele>
                <time>2017-03-12T11:21:41Z</time>
            </trkpt>
            <trkpt lat="47.420650934" lon="4.955082033">
                <ele>490.125000</ele>
                <time>2017-03-12T11:21:42Z</time>
            </trkpt>
            <trkpt lat="47.420483682" lon="4.955015807">
                <ele>490.649994</ele>
                <time>2017-03-12T11:21:58Z</time>
            </trkpt>
            <trkpt lat="47.420299760" lon="4.954940475">
                <ele>491.212494</ele>
                <time>2017-03-12T11:22:16Z</time>
            </trkpt>
            <trkpt lat="47.420121644" lon="4.954857141">
                <ele>491.484253</ele>
                <time>2017-03-12T11:22:33Z</time>
            </trkpt>
            <trkpt lat="47.419948233" lon="4.954777658">
                <ele>491.896240</ele>
                <time>2017-03-12T11:22:49Z</time>
            </trkpt>
            <trkpt lat="47.419784116" lon="4.954680595">
                <ele>492.588470</ele>
                <time>2017-03-12T11:23:01Z</time>
            </trkpt>
            <trkpt lat="47.419608648" lon="4.954657916">
                <ele>492.274994</ele>
                <time>2017-03-12T11:23:17Z</time>
            </trkpt>
            <trkpt lat="47.419461812" lon="4.954683860">
                <ele>491.423492</ele>
                <time>2017-03-12T11:23:33Z</time>
            </trkpt>
            <trkpt lat="47.419287068" lon="4.954700146">
                <ele>490.468384</ele>
                <time>2017-03-12T11:23:51Z</time>
            </trkpt>
            <trkpt lat="47.419106706" lon="4.954716156">
                <ele>489.408752</ele>
                <time>2017-03-12T11:24:06Z</time>
            </trkpt>
            <trkpt lat="47.418954812" lon="4.954716988">
                <ele>488.665863</ele>
                <time>2017-03-12T11:24:26Z</time>
            </trkpt>
            <trkpt lat="47.418785687" lon="4.954733550">
                <ele>487.342865</ele>
                <time>2017-03-12T11:24:32Z</time>
            </trkpt>
            <trkpt lat="47.418605325" lon="4.954749560">
                <ele>485.930206</ele>
                <time>2017-03-12T11:24:33Z</time>
            </trkpt>
            <trkpt lat="47.418397243" lon="4.954747634">
                <ele>485.158264</ele>
                <time>2017-03-12T11:24:52Z</time>
            </trkpt>
            <trkpt lat="47.418244975" lon="4.954765023">
                <ele>484.555054</ele>
                <time>2017-03-12T11:25:07Z</time>
            </trkpt>
            <trkpt lat="47.418092706" lon="4.954782411">
                <ele>483.974762</ele>
                <time>2017-03-12T11:25:12Z</time>
            </trkpt>
            <trkpt lat="47.417929387" lon="4.954790970">
                <ele>483.674988</ele>
                <time>2017-03-12T11:25:13Z</time>
            </trkpt>
            <trkpt lat="47.417749212" lon="4.954798701">
                <ele>483.399994</ele>
                <time>2017-03-12T11:25:33Z</time>
            </trkpt>
            <trkpt lat="47.417585706" lon="4.954815538">
                <ele>483.006744</ele>
                <time>2017-03-12T11:25:51Z</time>
            </trkpt>
            <trkpt lat="47.417433625" lon="4.954824648">
                <ele>482.844116</ele>
                <time>2017-03-12T11:26:06Z</time>
            </trkpt>
            <trkpt lat="47.417275925" lon="4.954833482">
                <ele>482.720612</ele>
                <time>2017-03-12T11:26:23Z</time>
            </trkpt>
            <trkpt lat="47.417112606" lon="4.954842041">
                <ele>482.723999</ele>
                <time>2017-03-12T11:26:30Z</time>
            </trkpt>
            <trkpt lat="47.416960338" lon="4.954859429">
                <ele>482.818756</ele>
                <time>2017-03-12T11:26:38Z</time>
            </trkpt>
            <trkpt lat="47.416814062" lon="4.954860536">
                <ele>483.141754</ele>
                <time>2017-03-12T11:26:39Z</time>
            </trkpt>
            <trkpt lat="47.416661794" lon="4.954877924">
                <ele>483.799988</ele>
                <time>2017-03-12T11:26:40Z</time>
            </trkpt>
            <trkpt lat="47.416509899" lon="4.954878756">
                <ele>485.428436</ele>
                <time>2017-03-12T11:26:41Z</time>
            </trkpt>
            <trkpt lat="47.416363437" lon="4.954888141">
                <ele>487.021240</ele>
                <time>2017-03-12T11:26:42Z</time>
            </trkpt>
            <trkpt lat="47.416416068" lon="4.955048183">
                <ele>485.953247</ele>
                <time>2017-03-12T11:26:43Z</time>
            </trkpt>
            <trkpt lat="47.416518144" lon="4.955260376">
                <ele>484.458008</ele>
                <time>2017-03-12T11:26:53Z</time>
            </trkpt>
            <trkpt lat="47.416581263" lon="4.955454082">
                <ele>483.309509</ele>
                <time>2017-03-12T11:27:03Z</time>
            </trkpt>
            <trkpt lat="47.416661238" lon="4.955648617">
                <ele>481.671509</ele>
                <time>2017-03-12T11:27:12Z</time>
            </trkpt>
            <trkpt lat="47.416723795" lon="4.955867159">
                <ele>480.284393</ele>
                <time>2017-03-12T11:27:13Z</time>
            </trkpt>
            <trkpt lat="47.416775675" lon="4.956060315">
                <ele>478.274384</ele>
                <time>2017-03-12T11:27:30Z</time>
            </trkpt>
            <trkpt lat="47.416798150" lon="4.956310039">
                <ele>477.353760</ele>
                <time>2017-03-12T11:27:47Z</time>
            </trkpt>
            <trkpt lat="47.416753761" lon="4.956531617">
                <ele>479.021362</ele>
                <time>2017-03-12T11:27:56Z</time>
            </trkpt>
            <trkpt lat="47.416693265" lon="4.956719254">
                <ele>481.460876</ele>
                <time>2017-03-12T11:27:57Z</time>
            </trkpt>
            <trkpt lat="47.416592126" lon="4.956962905">
                <ele>483.401489</ele>
                <time>2017-03-12T11:28:12Z</time>
            </trkpt>
            <trkpt lat="47.416502037" lon="4.957215386">
                <ele>482.760986</ele>
                <time>2017-03-12T11:28:30Z</time>
            </trkpt>
            <trkpt lat="47.416400334" lon="4.957483870">
                <ele>483.230011</ele>
                <time>2017-03-12T11:28:48Z</time>
            </trkpt>
            <trkpt lat="47.416299193" lon="4.957727518">
                <ele>484.537506</ele>
                <time>2017-03-12T11:29:06Z</time>
            </trkpt>
            <trkpt lat="47.416216107" lon="4.957946101">
                <ele>485.367218</ele>
                <time>2017-03-12T11:29:21Z</time>
            </trkpt>
            <trkpt lat="47.416108651" lon="4.958204348">
                <ele>486.034943</ele>
                <time>2017-03-12T11:29:38Z</time>
            </trkpt>
            <trkpt lat="47.416036786" lon="4.958385889">
                <ele>486.691864</ele>
                <time>2017-03-12T11:29:41Z</time>
            </trkpt>
            <trkpt lat="47.415953062" lon="4.958605529">
                <ele>487.914368</ele>
                <time>2017-03-12T11:29:56Z</time>
            </trkpt>
            <trkpt lat="47.415862406" lon="4.958882838">
                <ele>489.762512</ele>
                <time>2017-03-12T11:30:15Z</time>
            </trkpt>
            <trkpt lat="47.415770609" lon="4.959154352">
                <ele>492.929993</ele>
                <time>2017-03-12T11:30:33Z</time>
            </trkpt>
            <trkpt lat="47.415772306" lon="4.959383927">
                <ele>492.660004</ele>
                <time>2017-03-12T11:30:48Z</time>
            </trkpt>
            <trkpt lat="47.415761999" lon="4.959590600">
                <ele>492.839996</ele>
                <time>2017-03-12T11:30:53Z</time>
            </trkpt>
            <trkpt lat="47.415757311" lon="4.959797549">
                <ele>493.403503</ele>
                <time>2017-03-12T11:31:03Z</time>
            </trkpt>
            <trkpt lat="47.415757115" lon="4.960054443">
                <ele>494.036987</ele>
                <time>2017-03-12T11:31:17Z</time>
            </trkpt>
            <trkpt lat="47.415751488" lon="4.960302782">
                <ele>494.782501</ele>
                <time>2017-03-12T11:31:19Z</time>
            </trkpt>
            <trkpt lat="47.415745672" lon="4.960559398">
                <ele>495.421875</ele>
                <time>2017-03-12T11:31:38Z</time>
            </trkpt>
            <trkpt lat="47.415751094" lon="4.960816568">
                <ele>495.914368</ele>
                <time>2017-03-12T11:31:49Z</time>
            </trkpt>
            <trkpt lat="47.415773746" lon="4.961058011">
                <ele>496.065002</ele>
                <time>2017-03-12T11:31:50Z</time>
            </trkpt>
            <trkpt lat="47.415878064" lon="4.961170877">
                <ele>495.362000</ele>
                <time>2017-03-12T11:31:51Z</time>
            </trkpt>
            <trkpt lat="47.416013664" lon="4.961144400">
                <ele>494.131012</ele>
                <time>2017-03-12T11:34:28Z</time>
            </trkpt>
            <trkpt lat="47.416150579" lon="4.961059977">
                <ele>492.751068</ele>
                <time>2017-03-12T11:34:39Z</time>
            </trkpt>
            <trkpt lat="47.416292737" lon="4.960992386">
                <ele>492.921509</ele>
                <time>2017-03-12T11:34:51Z</time>
            </trkpt>
            <trkpt lat="47.416428588" lon="4.960933663">
                <ele>493.005066</ele>
                <time>2017-03-12T11:35:09Z</time>
            </trkpt>
            <trkpt lat="47.416603686" lon="4.960848167">
                <ele>492.748505</ele>
                <time>2017-03-12T11:35:22Z</time>
            </trkpt>
            <trkpt lat="47.416768558" lon="4.960764013">
                <ele>492.523041</ele>
                <time>2017-03-12T11:35:35Z</time>
            </trkpt>
            <trkpt lat="47.416913314" lon="4.960699221">
                <ele>492.637177</ele>
                <time>2017-03-12T11:35:46Z</time>
            </trkpt>
            <trkpt lat="47.417088557" lon="4.960625457">
                <ele>492.750000</ele>
                <time>2017-03-12T11:35:59Z</time>
            </trkpt>
            <trkpt lat="47.417253189" lon="4.960558969">
                <ele>492.299988</ele>
                <time>2017-03-12T11:36:10Z</time>
            </trkpt>
            <trkpt lat="47.417429059" lon="4.960493034">
                <ele>491.850006</ele>
                <time>2017-03-12T11:36:11Z</time>
            </trkpt>
            <trkpt lat="47.417604366" lon="4.960451932">
                <ele>491.040009</ele>
                <time>2017-03-12T11:36:23Z</time>
            </trkpt>
            <trkpt lat="47.417737341" lon="4.960541348">
                <ele>490.940002</ele>
                <time>2017-03-12T11:36:37Z</time>
            </trkpt>
            <trkpt lat="47.417847465" lon="4.960646216">
                <ele>491.040009</ele>
                <time>2017-03-12T11:36:52Z</time>
            </trkpt>
            <trkpt lat="47.417969201" lon="4.960735080">
                <ele>490.761993</ele>
                <time>2017-03-12T11:37:08Z</time>
            </trkpt>
            <trkpt lat="47.418101800" lon="4.960841054">
                <ele>490.135010</ele>
                <time>2017-03-12T11:37:20Z</time>
            </trkpt>
            <trkpt lat="47.418228780" lon="4.960946752">
                <ele>489.904510</ele>
                <time>2017-03-12T11:37:21Z</time>
            </trkpt>
            <trkpt lat="47.418338903" lon="4.961051621">
                <ele>490.144012</ele>
                <time>2017-03-12T11:37:26Z</time>
            </trkpt>
            <trkpt lat="47.418487795" lon="4.961183261">
                <ele>489.084259</ele>
                <time>2017-03-12T11:37:39Z</time>
            </trkpt>
            <trkpt lat="47.418652980" lon="4.961340567">
                <ele>487.924011</ele>
                <time>2017-03-12T11:37:52Z</time>
            </trkpt>
            <trkpt lat="47.418840828" lon="4.961490701">
                <ele>486.799866</ele>
                <time>2017-03-12T11:38:06Z</time>
            </trkpt>
            <trkpt lat="47.419028487" lon="4.961649115">
                <ele>486.111511</ele>
                <time>2017-03-12T11:38:21Z</time>
            </trkpt>
            <trkpt lat="47.419183185" lon="4.961772756">
                <ele>485.727875</ele>
                <time>2017-03-12T11:38:36Z</time>
            </trkpt>
            <trkpt lat="47.419354363" lon="4.961913785">
                <ele>484.623505</ele>
                <time>2017-03-12T11:38:51Z</time>
            </trkpt>
            <trkpt lat="47.419524978" lon="4.962079651">
                <ele>483.714508</ele>
                <time>2017-03-12T11:39:04Z</time>
            </trkpt>
            <trkpt lat="47.419696719" lon="4.962195846">
                <ele>482.698883</ele>
                <time>2017-03-12T11:39:19Z</time>
            </trkpt>
            <trkpt lat="47.419884565" lon="4.962345986">
                <ele>481.776489</ele>
                <time>2017-03-12T11:39:33Z</time>
            </trkpt>
            <trkpt lat="47.420050499" lon="4.962470184">
                <ele>481.024994</ele>
                <time>2017-03-12T11:39:41Z</time>
            </trkpt>
            <trkpt lat="47.420210251" lon="4.962618943">
                <ele>479.216614</ele>
                <time>2017-03-12T11:39:42Z</time>
            </trkpt>
            <trkpt lat="47.420398097" lon="4.962769086">
                <ele>476.451996</ele>
                <time>2017-03-12T11:39:43Z</time>
            </trkpt>
            <trkpt lat="47.420484993" lon="4.962905972">
                <ele>474.970001</ele>
                <time>2017-03-12T11:39:47Z</time>
            </trkpt>
            <trkpt lat="47.420388896" lon="4.963174741">
                <ele>476.117004</ele>
                <time>2017-03-12T11:39:48Z</time>
            </trkpt>
            <trkpt lat="47.420294677" lon="4.963360723">
                <ele>476.243988</ele>
                <time>2017-03-12T11:40:05Z</time>
            </trkpt>
            <trkpt lat="47.420210568" lon="4.963596930">
                <ele>476.451874</ele>
                <time>2017-03-12T11:40:53Z</time>
            </trkpt>
            <trkpt lat="47.420121487" lon="4.963811757">
                <ele>477.606018</ele>
                <time>2017-03-12T11:41:08Z</time>
            </trkpt>
            <trkpt lat="47.420031299" lon="4.964060509">
                <ele>476.722015</ele>
                <time>2017-03-12T11:41:25Z</time>
            </trkpt>
            <trkpt lat="47.419929768" lon="4.964320719">
                <ele>476.316010</ele>
                <time>2017-03-12T11:41:41Z</time>
            </trkpt>
            <trkpt lat="47.419851840" lon="4.964532364">
                <ele>476.063751</ele>
                <time>2017-03-12T11:41:54Z</time>
            </trkpt>
            <trkpt lat="47.419772213" lon="4.964719266">
                <ele>476.015076</ele>
                <time>2017-03-12T11:41:55Z</time>
            </trkpt>
            <trkpt lat="47.419695981" lon="4.964955652">
                <ele>476.125488</ele>
                <time>2017-03-12T11:42:46Z</time>
            </trkpt>
            <trkpt lat="47.419606626" lon="4.965175019">
                <ele>476.834869</ele>
                <time>2017-03-12T11:42:59Z</time>
            </trkpt>
            <trkpt lat="47.419528696" lon="4.965386661">
                <ele>476.545013</ele>
                <time>2017-03-12T11:43:12Z</time>
            </trkpt>
            <trkpt lat="47.419433533" lon="4.965614029">
                <ele>476.664001</ele>
                <time>2017-03-12T11:43:25Z</time>
            </trkpt>
            <trkpt lat="47.419344365" lon="4.965825116">
                <ele>476.885315</ele>
                <time>2017-03-12T11:43:37Z</time>
            </trkpt>
            <trkpt lat="47.419272804" lon="4.966003919">
                <ele>477.157806</ele>
                <time>2017-03-12T11:43:44Z</time>
            </trkpt>
            <trkpt lat="47.419213421" lon="4.966141884">
                <ele>477.760010</ele>
                <time>2017-03-12T11:43:45Z</time>
            </trkpt>
            <trkpt lat="47.419123312" lon="4.966394361">
                <ele>478.526611</ele>
                <time>2017-03-12T11:43:59Z</time>
            </trkpt>
            <trkpt lat="47.419033578" lon="4.966630281">
                <ele>477.863495</ele>
                <time>2017-03-12T11:44:12Z</time>
            </trkpt>
            <trkpt lat="47.418940477" lon="4.966851706">
                <ele>477.624634</ele>
                <time>2017-03-12T11:44:29Z</time>
            </trkpt>
            <trkpt lat="47.418851042" lon="4.967077514">
                <ele>477.488739</ele>
                <time>2017-03-12T11:44:41Z</time>
            </trkpt>
            <trkpt lat="47.418770744" lon="4.967305199">
                <ele>476.532501</ele>
                <time>2017-03-12T11:44:55Z</time>
            </trkpt>
            <trkpt lat="47.418682901" lon="4.967502309">
                <ele>476.071259</ele>
                <time>2017-03-12T11:45:03Z</time>
            </trkpt>
            <trkpt lat="47.418678040" lon="4.967520917">
                <ele>475.959991</ele>
                <time>2017-03-12T11:45:04Z</time>
            </trkpt>
            <trkpt lat="47.418672256" lon="4.967538603">
                <ele>475.853699</ele>
                <time>2017-03-12T11:45:05Z</time>
            </trkpt>
            <trkpt lat="47.418571590" lon="4.967663242">
                <ele>475.769287</ele>
                <time>2017-03-12T11:45:15Z</time>
            </trkpt>
            <trkpt lat="47.418323485" lon="4.967711689">
                <ele>477.892273</ele>
                <time>2017-03-12T11:45:32Z</time>
            </trkpt>
            <trkpt lat="47.418100191" lon="4.967739014">
                <ele>478.880005</ele>
                <time>2017-03-12T11:45:48Z</time>
            </trkpt>
            <trkpt lat="47.417885363" lon="4.967745971">
                <ele>480.149994</ele>
                <time>2017-03-12T11:46:03Z</time>
            </trkpt>
            <trkpt lat="47.417664249" lon="4.967775140">
                <ele>480.558685</ele>
                <time>2017-03-12T11:46:18Z</time>
            </trkpt>
            <trkpt lat="47.417414468" lon="4.967857283">
                <ele>479.441193</ele>
                <time>2017-03-12T11:46:35Z</time>
            </trkpt>
            <trkpt lat="47.417178014" lon="4.967940934">
                <ele>478.846222</ele>
                <time>2017-03-12T11:46:50Z</time>
            </trkpt>
            <trkpt lat="47.416954050" lon="4.968008827">
                <ele>479.942474</ele>
                <time>2017-03-12T11:47:04Z</time>
            </trkpt>
            <trkpt lat="47.416734779" lon="4.968130449">
                <ele>480.878937</ele>
                <time>2017-03-12T11:47:20Z</time>
            </trkpt>
            <trkpt lat="47.416625144" lon="4.968331363">
                <ele>478.948364</ele>
                <time>2017-03-12T11:47:33Z</time>
            </trkpt>
            <trkpt lat="47.416492770" lon="4.968535402">
                <ele>476.639313</ele>
                <time>2017-03-12T11:47:49Z</time>
            </trkpt>
            <trkpt lat="47.416387869" lon="4.968695972">
                <ele>476.329010</ele>
                <time>2017-03-12T11:48:04Z</time>
            </trkpt>
            <trkpt lat="47.416316774" lon="4.968826147">
                <ele>475.640198</ele>
                <time>2017-03-12T11:48:05Z</time>
            </trkpt>
            <trkpt lat="47.416229388" lon="4.968986495">
                <ele>475.493866</ele>
                <time>2017-03-12T11:48:06Z</time>
            </trkpt>
            <trkpt lat="47.416140778" lon="4.969172729">
                <ele>475.813995</ele>
                <time>2017-03-12T11:48:21Z</time>
            </trkpt>
            <trkpt lat="47.416100940" lon="4.969363175">
                <ele>475.088837</ele>
                <time>2017-03-12T11:48:34Z</time>
            </trkpt>
            <trkpt lat="47.416071100" lon="4.969457304">
                <ele>475.217285</ele>
                <time>2017-03-12T11:48:38Z</time>
            </trkpt>
            <trkpt lat="47.416051951" lon="4.969615858">
                <ele>474.509247</ele>
                <time>2017-03-12T11:48:45Z</time>
            </trkpt>
            <trkpt lat="47.416004380" lon="4.969814373">
                <ele>474.961151</ele>
                <time>2017-03-12T11:48:55Z</time>
            </trkpt>
            <trkpt lat="47.415962135" lon="4.970052754">
                <ele>475.124878</ele>
                <time>2017-03-12T11:49:06Z</time>
            </trkpt>
            <trkpt lat="47.415919388" lon="4.970316114">
                <ele>475.505981</ele>
                <time>2017-03-12T11:49:18Z</time>
            </trkpt>
            <trkpt lat="47.415869180" lon="4.970581485">
                <ele>475.351898</ele>
                <time>2017-03-12T11:49:31Z</time>
            </trkpt>
            <trkpt lat="47.415830288" lon="4.970868062">
                <ele>474.683502</ele>
                <time>2017-03-12T11:49:44Z</time>
            </trkpt>
            <trkpt lat="47.415834333" lon="4.971022234">
                <ele>474.576813</ele>
                <time>2017-03-12T11:49:55Z</time>
            </trkpt>
            <trkpt lat="47.415915223" lon="4.971175399">
                <ele>473.953735</ele>
                <time>2017-03-12T11:50:03Z</time>
            </trkpt>
            <trkpt lat="47.416019154" lon="4.971304842">
                <ele>472.244995</ele>
                <time>2017-03-12T11:50:17Z</time>
            </trkpt>
            <trkpt lat="47.416118207" lon="4.971465943">
                <ele>471.972107</ele>
                <time>2017-03-12T11:50:20Z</time>
            </trkpt>
            <trkpt lat="47.416179227" lon="4.971566610">
                <ele>472.382050</ele>
                <time>2017-03-12T11:50:26Z</time>
            </trkpt>
            <trkpt lat="47.416291990" lon="4.971674672">
                <ele>471.171173</ele>
                <time>2017-03-12T11:50:32Z</time>
            </trkpt>
            <trkpt lat="47.416400032" lon="4.971870618">
                <ele>468.155243</ele>
                <time>2017-03-12T11:50:34Z</time>
            </trkpt>
            <trkpt lat="47.416343999" lon="4.972108182">
                <ele>469.475952</ele>
                <time>2017-03-12T11:50:49Z</time>
            </trkpt>
            <trkpt lat="47.416282912" lon="4.972320634">
                <ele>468.864502</ele>
                <time>2017-03-12T11:51:04Z</time>
            </trkpt>
            <trkpt lat="47.416221637" lon="4.972541364">
                <ele>466.124756</ele>
                <time>2017-03-12T11:51:18Z</time>
            </trkpt>
            <trkpt lat="47.416188643" lon="4.972755203">
                <ele>463.502014</ele>
                <time>2017-03-12T11:51:31Z</time>
            </trkpt>
            <trkpt lat="47.416121182" lon="4.973000488">
                <ele>460.219116</ele>
                <time>2017-03-12T11:51:44Z</time>
            </trkpt>
            <trkpt lat="47.416059528" lon="4.973237772">
                <ele>456.392609</ele>
                <time>2017-03-12T11:51:58Z</time>
            </trkpt>
            <trkpt lat="47.415961182" lon="4.973357220">
                <ele>454.719879</ele>
                <time>2017-03-12T11:55:58Z</time>
            </trkpt>
            <trkpt lat="47.415873356" lon="4.973261719">
                <ele>456.817322</ele>
                <time>2017-03-12T11:56:11Z</time>
            </trkpt>
            <trkpt lat="47.415746576" lon="4.973147718">
                <ele>455.754761</ele>
                <time>2017-03-12T11:56:22Z</time>
            </trkpt>
            <trkpt lat="47.415634738" lon="4.973036963">
                <ele>455.019562</ele>
                <time>2017-03-12T11:56:35Z</time>
            </trkpt>
            <trkpt lat="47.415476488" lon="4.972883575">
                <ele>455.383484</ele>
                <time>2017-03-12T11:56:48Z</time>
            </trkpt>
            <trkpt lat="47.415320249" lon="4.972748123">
                <ele>453.713989</ele>
                <time>2017-03-12T11:57:00Z</time>
            </trkpt>
            <trkpt lat="47.415173159" lon="4.972638722">
                <ele>451.569000</ele>
                <time>2017-03-12T11:57:15Z</time>
            </trkpt>
            <trkpt lat="47.415034426" lon="4.972493062">
                <ele>451.805084</ele>
                <time>2017-03-12T11:57:28Z</time>
            </trkpt>
            <trkpt lat="47.414903118" lon="4.972393339">
                <ele>452.219757</ele>
                <time>2017-03-12T11:57:40Z</time>
            </trkpt>
            <trkpt lat="47.414786909" lon="4.972276306">
                <ele>454.411224</ele>
                <time>2017-03-12T11:57:55Z</time>
            </trkpt>
            <trkpt lat="47.414671654" lon="4.972183012">
                <ele>456.315491</ele>
                <time>2017-03-12T11:58:10Z</time>
            </trkpt>
            <trkpt lat="47.414572024" lon="4.972111793">
                <ele>457.204010</ele>
                <time>2017-03-12T11:58:18Z</time>
            </trkpt>
            <trkpt lat="47.414450484" lon="4.972014631">
                <ele>457.084381</ele>
                <time>2017-03-12T11:58:21Z</time>
            </trkpt>
            <trkpt lat="47.414346366" lon="4.971893469">
                <ele>457.759064</ele>
                <time>2017-03-12T11:58:40Z</time>
            </trkpt>
            <trkpt lat="47.414225015" lon="4.971788030">
                <ele>458.117493</ele>
                <time>2017-03-12T11:58:48Z</time>
            </trkpt>
            <trkpt lat="47.414098421" lon="4.971665759">
                <ele>459.259369</ele>
                <time>2017-03-12T11:59:02Z</time>
            </trkpt>
            <trkpt lat="47.413977258" lon="4.971552043">
                <ele>460.275757</ele>
                <time>2017-03-12T11:59:06Z</time>
            </trkpt>
            <trkpt lat="47.413878193" lon="4.971455994">
                <ele>461.877869</ele>
                <time>2017-03-12T11:59:11Z</time>
            </trkpt>
            <trkpt lat="47.413775297" lon="4.971353207">
                <ele>463.000885</ele>
                <time>2017-03-12T11:59:22Z</time>
            </trkpt>
            <trkpt lat="47.413627189" lon="4.971229657">
                <ele>464.595215</ele>
                <time>2017-03-12T11:59:35Z</time>
            </trkpt>
            <trkpt lat="47.413508330" lon="4.971147684">
                <ele>466.695740</ele>
                <time>2017-03-12T11:59:49Z</time>
            </trkpt>
            <trkpt lat="47.413376117" lon="4.971025139">
                <ele>469.679016</ele>
                <time>2017-03-12T11:59:51Z</time>
            </trkpt>
            <trkpt lat="47.413254445" lon="4.970892789">
                <ele>472.706696</ele>
                <time>2017-03-12T12:00:05Z</time>
            </trkpt>
            <trkpt lat="47.413172367" lon="4.970832766">
                <ele>474.402496</ele>
                <time>2017-03-12T12:00:17Z</time>
            </trkpt>
            <trkpt lat="47.413049005" lon="4.970726324">
                <ele>477.634949</ele>
                <time>2017-03-12T12:00:20Z</time>
            </trkpt>
            <trkpt lat="47.412928721" lon="4.970663286">
                <ele>479.395752</ele>
                <time>2017-03-12T12:00:21Z</time>
            </trkpt>
            <trkpt lat="47.412883127" lon="4.970767144">
                <ele>478.575470</ele>
                <time>2017-03-12T12:00:34Z</time>
            </trkpt>
            <trkpt lat="47.412866695" lon="4.970917113">
                <ele>477.448242</ele>
                <time>2017-03-12T12:00:37Z</time>
            </trkpt>
            <trkpt lat="47.412856744" lon="4.971107218">
                <ele>475.965637</ele>
                <time>2017-03-12T12:00:47Z</time>
            </trkpt>
            <trkpt lat="47.412846416" lon="4.971313877">
                <ele>474.512512</ele>
                <time>2017-03-12T12:00:59Z</time>
            </trkpt>
            <trkpt lat="47.412845828" lon="4.971513553">
                <ele>472.284088</ele>
                <time>2017-03-12T12:01:10Z</time>
            </trkpt>
            <trkpt lat="47.412842427" lon="4.971736306">
                <ele>469.510498</ele>
                <time>2017-03-12T12:01:24Z</time>
            </trkpt>
            <trkpt lat="47.412836964" lon="4.971976353">
                <ele>466.625000</ele>
                <time>2017-03-12T12:01:39Z</time>
            </trkpt>
            <trkpt lat="47.412836929" lon="4.972224954">
                <ele>464.811249</ele>
                <time>2017-03-12T12:01:44Z</time>
            </trkpt>
            <trkpt lat="47.412826034" lon="4.972456446">
                <ele>464.270996</ele>
                <time>2017-03-12T12:01:47Z</time>
            </trkpt>
            <trkpt lat="47.412838179" lon="4.972664215">
                <ele>462.748993</ele>
                <time>2017-03-12T12:01:51Z</time>
            </trkpt>
            <trkpt lat="47.412832902" lon="4.972895984">
                <ele>462.360504</ele>
                <time>2017-03-12T12:02:08Z</time>
            </trkpt>
            <trkpt lat="47.412838296" lon="4.973153141">
                <ele>461.621002</ele>
                <time>2017-03-12T12:02:22Z</time>
            </trkpt>
            <trkpt lat="47.412843501" lon="4.973418576">
                <ele>460.548004</ele>
                <time>2017-03-12T12:02:38Z</time>
            </trkpt>
            <trkpt lat="47.412850025" lon="4.973626068">
                <ele>457.144257</ele>
                <time>2017-03-12T12:02:39Z</time>
            </trkpt>
            <trkpt lat="47.412774530" lon="4.973730064">
                <ele>456.953491</ele>
                <time>2017-03-12T12:02:53Z</time>
            </trkpt>
            <trkpt lat="47.412660755" lon="4.973715395">
                <ele>458.839813</ele>
                <time>2017-03-12T12:02:55Z</time>
            </trkpt>
            <trkpt lat="47.412510827" lon="4.973700454">
                <ele>459.000000</ele>
                <time>2017-03-12T12:02:56Z</time>
            </trkpt>
            <trkpt lat="47.412376354" lon="4.973677233">
                <ele>459.419495</ele>
                <time>2017-03-12T12:03:10Z</time>
            </trkpt>
            <trkpt lat="47.412202362" lon="4.973660346">
                <ele>460.037994</ele>
                <time>2017-03-12T12:03:25Z</time>
            </trkpt>
            <trkpt lat="47.412045791" lon="4.973619459">
                <ele>462.547638</ele>
                <time>2017-03-12T12:03:40Z</time>
            </trkpt>
            <trkpt lat="47.411859445" lon="4.973607687">
                <ele>464.522125</ele>
                <time>2017-03-12T12:03:55Z</time>
            </trkpt>
            <trkpt lat="47.411731519" lon="4.973587351">
                <ele>466.950500</ele>
                <time>2017-03-12T12:04:11Z</time>
            </trkpt>
            <trkpt lat="47.411597234" lon="4.973555853">
                <ele>470.563995</ele>
                <time>2017-03-12T12:04:25Z</time>
            </trkpt>
            <trkpt lat="47.411428484" lon="4.973555798">
                <ele>474.082001</ele>
                <time>2017-03-12T12:04:26Z</time>
            </trkpt>
            <trkpt lat="47.411304683" lon="4.973557965">
                <ele>476.375000</ele>
                <time>2017-03-12T12:04:41Z</time>
            </trkpt>
            <trkpt lat="47.411199790" lon="4.973673485">
                <ele>476.144440</ele>
                <time>2017-03-12T12:04:51Z</time>
            </trkpt>
            <trkpt lat="47.411095809" lon="4.973837669">
                <ele>475.766235</ele>
                <time>2017-03-12T12:04:52Z</time>
            </trkpt>
            <trkpt lat="47.410968614" lon="4.973988824">
                <ele>476.773254</ele>
                <time>2017-03-12T12:05:08Z</time>
            </trkpt>
            <trkpt lat="47.410848169" lon="4.974119151">
                <ele>478.687134</ele>
                <time>2017-03-12T12:05:25Z</time>
            </trkpt>
            <trkpt lat="47.410792886" lon="4.974295022">
                <ele>478.694000</ele>
                <time>2017-03-12T12:05:37Z</time>
            </trkpt>
            <trkpt lat="47.410790585" lon="4.974545035">
                <ele>477.658386</ele>
                <time>2017-03-12T12:05:48Z</time>
            </trkpt>
            <trkpt lat="47.410794128" lon="4.974734267">
                <ele>477.239990</ele>
                <time>2017-03-12T12:05:49Z</time>
            </trkpt>
            <trkpt lat="47.410815619" lon="4.975025356">
                <ele>476.760010</ele>
                <time>2017-03-12T12:06:06Z</time>
            </trkpt>
            <trkpt lat="47.410863088" lon="4.975255905">
                <ele>475.497742</ele>
                <time>2017-03-12T12:06:20Z</time>
            </trkpt>
            <trkpt lat="47.410912754" lon="4.975452771">
                <ele>473.590881</ele>
                <time>2017-03-12T12:06:31Z</time>
            </trkpt>
            <trkpt lat="47.410954497" lon="4.975595707">
                <ele>472.273254</ele>
                <time>2017-03-12T12:06:40Z</time>
            </trkpt>
            <trkpt lat="47.411011586" lon="4.975805693">
                <ele>470.983002</ele>
                <time>2017-03-12T12:06:42Z</time>
            </trkpt>
            <trkpt lat="47.411062867" lon="4.976023680">
                <ele>470.269745</ele>
                <time>2017-03-12T12:06:43Z</time>
            </trkpt>
            <trkpt lat="47.411119766" lon="4.976241945">
                <ele>469.536255</ele>
                <time>2017-03-12T12:06:58Z</time>
            </trkpt>
            <trkpt lat="47.411181529" lon="4.976493597">
                <ele>469.266235</ele>
                <time>2017-03-12T12:07:12Z</time>
            </trkpt>
            <trkpt lat="47.411249288" lon="4.976728973">
                <ele>468.908264</ele>
                <time>2017-03-12T12:07:27Z</time>
            </trkpt>
            <trkpt lat="47.411306941" lon="4.976914131">
                <ele>467.905304</ele>
                <time>2017-03-12T12:07:34Z</time>
            </trkpt>
            <trkpt lat="47.411354300" lon="4.977057346">
                <ele>467.131256</ele>
                <time>2017-03-12T12:07:36Z</time>
            </trkpt>
            <trkpt lat="47.411405768" lon="4.977267058">
                <ele>466.865631</ele>
                <time>2017-03-12T12:07:47Z</time>
            </trkpt>
            <trkpt lat="47.411444960" lon="4.977447521">
                <ele>466.062744</ele>
                <time>2017-03-12T12:08:01Z</time>
            </trkpt>
            <trkpt lat="47.411497766" lon="4.977622116">
                <ele>464.939331</ele>
                <time>2017-03-12T12:08:09Z</time>
            </trkpt>
            <trkpt lat="47.411546333" lon="4.977762925">
                <ele>464.135986</ele>
                <time>2017-03-12T12:08:21Z</time>
            </trkpt>
            <trkpt lat="47.411610170" lon="4.977923531">
                <ele>463.297485</ele>
                <time>2017-03-12T12:08:22Z</time>
            </trkpt>
            <trkpt lat="47.411548884" lon="4.978144235">
                <ele>463.997253</ele>
                <time>2017-03-12T12:08:33Z</time>
            </trkpt>
            <trkpt lat="47.411515691" lon="4.978366330">
                <ele>463.894257</ele>
                <time>2017-03-12T12:08:37Z</time>
            </trkpt>
            <trkpt lat="47.411453459" lon="4.978628419">
                <ele>463.907257</ele>
                <time>2017-03-12T12:08:53Z</time>
            </trkpt>
            <trkpt lat="47.411432258" lon="4.978817960">
                <ele>462.716003</ele>
                <time>2017-03-12T12:09:01Z</time>
            </trkpt>
            <trkpt lat="47.411394201" lon="4.979006667">
                <ele>461.939240</ele>
                <time>2017-03-12T12:09:14Z</time>
            </trkpt>
            <trkpt lat="47.411356143" lon="4.979195373">
                <ele>461.334991</ele>
                <time>2017-03-12T12:09:22Z</time>
            </trkpt>
            <trkpt lat="47.411318085" lon="4.979384078">
                <ele>460.498627</ele>
                <time>2017-03-12T12:09:23Z</time>
            </trkpt>
            <trkpt lat="47.411285645" lon="4.979573062">
                <ele>459.463989</ele>
                <time>2017-03-12T12:09:38Z</time>
            </trkpt>
            <trkpt lat="47.411235593" lon="4.979794320">
                <ele>458.884491</ele>
                <time>2017-03-12T12:09:43Z</time>
            </trkpt>
            <trkpt lat="47.411197534" lon="4.979983025">
                <ele>458.318512</ele>
                <time>2017-03-12T12:09:56Z</time>
            </trkpt>
            <trkpt lat="47.411097291" lon="4.980185221">
                <ele>457.778320</ele>
                <time>2017-03-12T12:10:10Z</time>
            </trkpt>
            <trkpt lat="47.411024763" lon="4.980405363">
                <ele>456.812134</ele>
                <time>2017-03-12T12:10:22Z</time>
            </trkpt>
            <trkpt lat="47.410947372" lon="4.980592118">
                <ele>456.621002</ele>
                <time>2017-03-12T12:10:23Z</time>
            </trkpt>
            <trkpt lat="47.410875788" lon="4.980770873">
                <ele>456.265503</ele>
                <time>2017-03-12T12:10:35Z</time>
            </trkpt>
            <trkpt lat="47.410786970" lon="4.980965346">
                <ele>456.539246</ele>
                <time>2017-03-12T12:10:50Z</time>
            </trkpt>
            <trkpt lat="47.410721194" lon="4.981136102">
                <ele>456.828003</ele>
                <time>2017-03-12T12:11:03Z</time>
            </trkpt>
            <trkpt lat="47.410649231" lon="4.981331410">
                <ele>455.696747</ele>
                <time>2017-03-12T12:11:14Z</time>
            </trkpt>
            <trkpt lat="47.410565841" lon="4.981534437">
                <ele>454.510498</ele>
                <time>2017-03-12T12:11:23Z</time>
            </trkpt>
            <trkpt lat="47.410511635" lon="4.981676610">
                <ele>453.674194</ele>
                <time>2017-03-12T12:11:24Z</time>
            </trkpt>
            <trkpt lat="47.410446848" lon="4.981818563">
                <ele>453.062988</ele>
                <time>2017-03-12T12:11:25Z</time>
            </trkpt>
            <trkpt lat="47.410388673" lon="4.981947513">
                <ele>451.985626</ele>
                <time>2017-03-12T12:11:36Z</time>
            </trkpt>
            <trkpt lat="47.410339659" lon="4.982078414">
                <ele>450.231506</ele>
                <time>2017-03-12T12:11:37Z</time>
            </trkpt>
            <trkpt lat="47.410191782" lon="4.982113475">
                <ele>450.460388</ele>
                <time>2017-03-12T12:11:52Z</time>
            </trkpt>
            <trkpt lat="47.410048052" lon="4.982039094">
                <ele>451.382751</ele>
                <time>2017-03-12T12:12:07Z</time>
            </trkpt>
            <trkpt lat="47.409861451" lon="4.981961511">
                <ele>452.526398</ele>
                <time>2017-03-12T12:12:15Z</time>
            </trkpt>
            <trkpt lat="47.409741757" lon="4.981908705">
                <ele>453.369232</ele>
                <time>2017-03-12T12:12:24Z</time>
            </trkpt>
            <trkpt lat="47.409615191" lon="4.981828071">
                <ele>454.774353</ele>
                <time>2017-03-12T12:12:37Z</time>
            </trkpt>
            <trkpt lat="47.409442943" lon="4.981741402">
                <ele>455.438690</ele>
                <time>2017-03-12T12:12:49Z</time>
            </trkpt>
            <trkpt lat="47.409291660" lon="4.981661850">
                <ele>455.923737</ele>
                <time>2017-03-12T12:13:02Z</time>
            </trkpt>
            <trkpt lat="47.409124422" lon="4.981595555">
                <ele>456.003998</ele>
                <time>2017-03-12T12:13:16Z</time>
            </trkpt>
            <trkpt lat="47.408940895" lon="4.981503593">
                <ele>456.662872</ele>
                <time>2017-03-12T12:13:28Z</time>
            </trkpt>
            <trkpt lat="47.408768227" lon="4.981428744">
                <ele>458.209991</ele>
                <time>2017-03-12T12:13:43Z</time>
            </trkpt>
            <trkpt lat="47.408618223" lon="4.981346732">
                <ele>459.967865</ele>
                <time>2017-03-12T12:14:03Z</time>
            </trkpt>
            <trkpt lat="47.408438874" lon="4.981277967">
                <ele>461.665497</ele>
                <time>2017-03-12T12:14:20Z</time>
            </trkpt>
            <trkpt lat="47.408326995" lon="4.981290864">
                <ele>462.427795</ele>
                <time>2017-03-12T12:14:30Z</time>
            </trkpt>
            <trkpt lat="47.408295209" lon="4.981563203">
                <ele>458.890411</ele>
                <time>2017-03-12T12:14:46Z</time>
            </trkpt>
            <trkpt lat="47.408258894" lon="4.981809512">
                <ele>455.747986</ele>
                <time>2017-03-12T12:15:00Z</time>
            </trkpt>
            <trkpt lat="47.408178853" lon="4.982112129">
                <ele>451.681763</ele>
                <time>2017-03-12T12:15:05Z</time>
            </trkpt>
            <trkpt lat="47.408110994" lon="4.982373919">
                <ele>449.496002</ele>
                <time>2017-03-12T12:15:15Z</time>
            </trkpt>
            <trkpt lat="47.408053615" lon="4.982669372">
                <ele>450.062622</ele>
                <time>2017-03-12T12:15:17Z</time>
            </trkpt>
            <trkpt lat="47.407995857" lon="4.982981377">
                <ele>451.349640</ele>
                <time>2017-03-12T12:15:31Z</time>
            </trkpt>
            <trkpt lat="47.407950282" lon="4.983252557">
                <ele>452.076263</ele>
                <time>2017-03-12T12:15:46Z</time>
            </trkpt>
            <trkpt lat="47.407805840" lon="4.983419398">
                <ele>453.781677</ele>
                <time>2017-03-12T12:15:58Z</time>
            </trkpt>
            <trkpt lat="47.407667584" lon="4.983561687">
                <ele>455.053314</ele>
                <time>2017-03-12T12:16:13Z</time>
            </trkpt>
            <trkpt lat="47.407529328" lon="4.983703975">
                <ele>455.919922</ele>
                <time>2017-03-12T12:16:26Z</time>
            </trkpt>
            <trkpt lat="47.407379266" lon="4.983870535">
                <ele>455.154999</ele>
                <time>2017-03-12T12:16:42Z</time>
            </trkpt>
            <trkpt lat="47.407247197" lon="4.983988271">
                <ele>454.507507</ele>
                <time>2017-03-12T12:16:57Z</time>
            </trkpt>
            <trkpt lat="47.407085281" lon="4.984150864">
                <ele>453.570007</ele>
                <time>2017-03-12T12:17:15Z</time>
            </trkpt>
            <trkpt lat="47.407008670" lon="4.984247675">
                <ele>452.957397</ele>
                <time>2017-03-12T12:17:22Z</time>
            </trkpt>
            <trkpt lat="47.406874219" lon="4.984309485">
                <ele>452.726501</ele>
                <time>2017-03-12T12:17:24Z</time>
            </trkpt>
            <trkpt lat="47.406738801" lon="4.984327622">
                <ele>452.842010</ele>
                <time>2017-03-12T12:17:39Z</time>
            </trkpt>
            <trkpt lat="47.406620808" lon="4.984321767">
                <ele>453.097046</ele>
                <time>2017-03-12T12:17:43Z</time>
            </trkpt>
            <trkpt lat="47.406474532" lon="4.984322793">
                <ele>453.363251</ele>
                <time>2017-03-12T12:17:44Z</time>
            </trkpt>
            <trkpt lat="47.406288357" lon="4.984346697">
                <ele>453.529999</ele>
                <time>2017-03-12T12:17:59Z</time>
            </trkpt>
            <trkpt lat="47.406108179" lon="4.984354327">
                <ele>453.700012</ele>
                <time>2017-03-12T12:18:14Z</time>
            </trkpt>
            <trkpt lat="47.405939428" lon="4.984354238">
                <ele>453.625000</ele>
                <time>2017-03-12T12:18:28Z</time>
            </trkpt>
            <trkpt lat="47.405761275" lon="4.984419672">
                <ele>452.950012</ele>
                <time>2017-03-12T12:18:44Z</time>
            </trkpt>
            <trkpt lat="47.405594414" lon="4.984436544">
                <ele>452.458252</ele>
                <time>2017-03-12T12:18:58Z</time>
            </trkpt>
            <trkpt lat="47.405618153" lon="4.984628293">
                <ele>450.767487</ele>
                <time>2017-03-12T12:19:05Z</time>
            </trkpt>
            <trkpt lat="47.405640756" lon="4.984869700">
                <ele>448.648071</ele>
                <time>2017-03-12T12:19:17Z</time>
            </trkpt>
            <trkpt lat="47.405659065" lon="4.985052895">
                <ele>446.816193</ele>
                <time>2017-03-12T12:19:27Z</time>
            </trkpt>
            <trkpt lat="47.405665569" lon="4.985260360">
                <ele>444.368988</ele>
                <time>2017-03-12T12:19:28Z</time>
            </trkpt>
            <trkpt lat="47.405599596" lon="4.985439371">
                <ele>442.002380</ele>
                <time>2017-03-12T12:19:43Z</time>
            </trkpt>
            <trkpt lat="47.405600859" lon="4.985630004">
                <ele>439.804993</ele>
                <time>2017-03-12T12:19:47Z</time>
            </trkpt>
            <trkpt lat="47.405589937" lon="4.985861462">
                <ele>438.394989</ele>
                <time>2017-03-12T12:19:58Z</time>
            </trkpt>
            <trkpt lat="47.405589684" lon="4.986118306">
                <ele>436.855011</ele>
                <time>2017-03-12T12:20:09Z</time>
            </trkpt>
            <trkpt lat="47.405600667" lon="4.986375708">
                <ele>435.026703</ele>
                <time>2017-03-12T12:20:23Z</time>
            </trkpt>
            <trkpt lat="47.405603863" lon="4.986660406">
                <ele>432.365295</ele>
                <time>2017-03-12T12:20:36Z</time>
            </trkpt>
            <trkpt lat="47.405662788" lon="4.986933656">
                <ele>430.091492</ele>
                <time>2017-03-12T12:20:49Z</time>
            </trkpt>
            <trkpt lat="47.405698579" lon="4.987098947">
                <ele>427.670685</ele>
                <time>2017-03-12T12:20:59Z</time>
            </trkpt>
            <trkpt lat="47.405752642" lon="4.987345710">
                <ele>423.985199</ele>
                <time>2017-03-12T12:21:12Z</time>
            </trkpt>
            <trkpt lat="47.405769846" lon="4.987585542">
                <ele>420.483490</ele>
                <time>2017-03-12T12:21:20Z</time>
            </trkpt>
            <trkpt lat="47.405769968" lon="4.987825835">
                <ele>417.500000</ele>
                <time>2017-03-12T12:21:30Z</time>
            </trkpt>
            <trkpt lat="47.405728335" lon="4.988026070">
                <ele>415.059998</ele>
                <time>2017-03-12T12:21:43Z</time>
            </trkpt>
            <trkpt lat="47.405617526" lon="4.988218183">
                <ele>412.670013</ele>
                <time>2017-03-12T12:21:55Z</time>
            </trkpt>
            <trkpt lat="47.405451983" lon="4.988335026">
                <ele>410.385010</ele>
                <time>2017-03-12T12:22:08Z</time>
            </trkpt>
            <trkpt lat="47.405307563" lon="4.988429910">
                <ele>408.361267</ele>
                <time>2017-03-12T12:22:19Z</time>
            </trkpt>
            <trkpt lat="47.405195581" lon="4.988519596">
                <ele>406.577515</ele>
                <time>2017-03-12T12:22:28Z</time>
            </trkpt>
            <trkpt lat="47.405100279" lon="4.988655718">
                <ele>403.940002</ele>
                <time>2017-03-12T12:22:37Z</time>
            </trkpt>
            <trkpt lat="47.404988501" lon="4.988789562">
                <ele>400.850006</ele>
                <time>2017-03-12T12:22:47Z</time>
            </trkpt>
            <trkpt lat="47.404938431" lon="4.989010784">
                <ele>397.475006</ele>
                <time>2017-03-12T12:22:59Z</time>
            </trkpt>
            <trkpt lat="47.404922163" lon="4.989278661">
                <ele>394.125000</ele>
                <time>2017-03-12T12:23:08Z</time>
            </trkpt>
            <trkpt lat="47.404910196" lon="4.989506517">
                <ele>391.299988</ele>
                <time>2017-03-12T12:23:16Z</time>
            </trkpt>
            <trkpt lat="47.404911937" lon="4.989710161">
                <ele>388.695007</ele>
                <time>2017-03-12T12:23:27Z</time>
            </trkpt>
            <trkpt lat="47.404917567" lon="4.989921164">
                <ele>385.937500</ele>
                <time>2017-03-12T12:23:37Z</time>
            </trkpt>
            <trkpt lat="47.404957205" lon="4.990155133">
                <ele>383.287506</ele>
                <time>2017-03-12T12:23:46Z</time>
            </trkpt>
            <trkpt lat="47.405036744" lon="4.990398819">
                <ele>380.225006</ele>
                <time>2017-03-12T12:23:59Z</time>
            </trkpt>
            <trkpt lat="47.405077396" lon="4.990635859">
                <ele>376.480011</ele>
                <time>2017-03-12T12:24:09Z</time>
            </trkpt>
            <trkpt lat="47.405110840" lon="4.990868541">
                <ele>372.570007</ele>
                <time>2017-03-12T12:24:21Z</time>
            </trkpt>
            <trkpt lat="47.405100604" lon="4.991015686">
                <ele>370.071503</ele>
                <time>2017-03-12T12:24:28Z</time>
            </trkpt>
            <trkpt lat="47.405005959" lon="4.991218118">
                <ele>365.825256</ele>
                <time>2017-03-12T12:24:40Z</time>
            </trkpt>
            <trkpt lat="47.405100149" lon="4.991280804">
                <ele>365.657745</ele>
                <time>2017-03-12T12:24:49Z</time>
            </trkpt>
            <trkpt lat="47.405199843" lon="4.991103480">
                <ele>368.626495</ele>
                <time>2017-03-12T12:25:05Z</time>
            </trkpt>
            <trkpt lat="47.405336210" lon="4.991043979">
                <ele>369.691010</ele>
                <time>2017-03-12T12:25:09Z</time>
            </trkpt>
            <trkpt lat="47.405493913" lon="4.991035254">
                <ele>369.918365</ele>
                <time>2017-03-12T12:25:23Z</time>
            </trkpt>
            <trkpt lat="47.405674471" lon="4.991011094">
                <ele>368.730011</ele>
                <time>2017-03-12T12:25:38Z</time>
            </trkpt>
            <trkpt lat="47.405815698" lon="4.990984978">
                <ele>367.470001</ele>
                <time>2017-03-12T12:25:46Z</time>
            </trkpt>
            <trkpt lat="47.406007683" lon="4.990953100">
                <ele>365.580750</ele>
                <time>2017-03-12T12:25:56Z</time>
            </trkpt>
            <trkpt lat="47.406176624" lon="4.990944934">
                <ele>362.492493</ele>
                <time>2017-03-12T12:26:07Z</time>
            </trkpt>
            <trkpt lat="47.406356992" lon="4.990929050">
                <ele>359.304993</ele>
                <time>2017-03-12T12:26:12Z</time>
            </trkpt>
            <trkpt lat="47.406504597" lon="4.990870107">
                <ele>357.460510</ele>
                <time>2017-03-12T12:26:25Z</time>
            </trkpt>
            <trkpt lat="47.406618299" lon="4.990817762">
                <ele>356.102234</ele>
                <time>2017-03-12T12:26:28Z</time>
            </trkpt>
            <trkpt lat="47.406727637" lon="4.990955776">
                <ele>351.718872</ele>
                <time>2017-03-12T12:26:42Z</time>
            </trkpt>
            <trkpt lat="47.406726424" lon="4.991254008">
                <ele>347.602112</ele>
                <time>2017-03-12T12:26:54Z</time>
            </trkpt>
            <trkpt lat="47.406709112" lon="4.991518296">
                <ele>344.302490</ele>
                <time>2017-03-12T12:27:06Z</time>
            </trkpt>
            <trkpt lat="47.406691231" lon="4.991807412">
                <ele>340.686249</ele>
                <time>2017-03-12T12:27:12Z</time>
            </trkpt>
            <trkpt lat="47.406684397" lon="4.992105364">
                <ele>336.818512</ele>
                <time>2017-03-12T12:27:18Z</time>
            </trkpt>
            <trkpt lat="47.406656416" lon="4.992344262">
                <ele>334.083130</ele>
                <time>2017-03-12T12:27:31Z</time>
            </trkpt>
            <trkpt lat="47.406650719" lon="4.992592555">
                <ele>330.741882</ele>
                <time>2017-03-12T12:27:40Z</time>
            </trkpt>
            <trkpt lat="47.406617308" lon="4.992822897">
                <ele>328.040985</ele>
                <time>2017-03-12T12:27:47Z</time>
            </trkpt>
            <trkpt lat="47.406639894" lon="4.993064312">
                <ele>324.557007</ele>
                <time>2017-03-12T12:27:51Z</time>
            </trkpt>
            <trkpt lat="47.406689404" lon="4.993257467">
                <ele>321.798737</ele>
                <time>2017-03-12T12:28:13Z</time>
            </trkpt>
            <trkpt lat="47.406713538" lon="4.993531990">
                <ele>318.601990</ele>
                <time>2017-03-12T12:28:27Z</time>
            </trkpt>
            <trkpt lat="47.406685934" lon="4.993754334">
                <ele>316.582489</ele>
                <time>2017-03-12T12:28:38Z</time>
            </trkpt>
            <trkpt lat="47.406742610" lon="4.993980876">
                <ele>314.545990</ele>
                <time>2017-03-12T12:29:08Z</time>
            </trkpt>
            <trkpt lat="47.406748419" lon="4.993972880">
                <ele>314.603241</ele>
                <time>2017-03-12T08:25:26Z</time>
            </trkpt>
            <trkpt lat="47.406788238" lon="4.994198583">
                <ele>312.770996</ele>
                <time>2017-03-12T08:25:37Z</time>
            </trkpt>
            <trkpt lat="47.406864166" lon="4.994523302">
                <ele>310.162048</ele>
                <time>2017-03-12T08:25:53Z</time>
            </trkpt>
            <trkpt lat="47.406880092" lon="4.994832007">
                <ele>308.243591</ele>
                <time>2017-03-12T08:26:08Z</time>
            </trkpt>
            <trkpt lat="47.406854192" lon="4.995170636">
                <ele>306.453125</ele>
                <time>2017-03-12T08:26:22Z</time>
            </trkpt>
            <trkpt lat="47.406810299" lon="4.995442570">
                <ele>305.030243</ele>
            </trkpt>
            <trkpt lat="47.406758885" lon="4.995721729">
                <ele>303.724762</ele>
                <time>2017-03-12T08:26:40Z</time>
            </trkpt>
            <trkpt lat="47.406724137" lon="4.996010004">
                <ele>303.036499</ele>
                <time>2017-03-12T08:26:57Z</time>
            </trkpt>
            <trkpt lat="47.406717102" lon="4.996316233">
                <ele>302.421997</ele>
                <time>2017-03-12T08:27:15Z</time>
            </trkpt>
            <trkpt lat="47.406720542" lon="4.996656127">
                <ele>302.954376</ele>
                <time>2017-03-12T08:27:32Z</time>
            </trkpt>
            <trkpt lat="47.406730171" lon="4.996971472">
                <ele>303.279114</ele>
                <time>2017-03-12T08:27:48Z</time>
            </trkpt>
            <trkpt lat="47.406750275" lon="4.997320483">
                <ele>302.987183</ele>
            </trkpt>
            <trkpt lat="47.406782186" lon="4.997645226">
                <ele>302.719757</ele>
                <time>2017-03-12T08:28:00Z</time>
            </trkpt>
            <trkpt lat="47.406803621" lon="4.997936302">
                <ele>302.610565</ele>
                <time>2017-03-12T08:28:16Z</time>
            </trkpt>
            <trkpt lat="47.406819245" lon="4.998235375">
                <ele>302.577179</ele>
                <time>2017-03-12T08:28:29Z</time>
            </trkpt>
            <trkpt lat="47.406857724" lon="4.998519017">
                <ele>303.145813</ele>
                <time>2017-03-12T08:28:31Z</time>
            </trkpt>
            <trkpt lat="47.406890203" lon="4.998818932">
                <ele>303.684692</ele>
                <time>2017-03-12T08:28:46Z</time>
            </trkpt>
            <trkpt lat="47.406944775" lon="4.999136522">
                <ele>303.485138</ele>
                <time>2017-03-12T08:29:02Z</time>
            </trkpt>
            <trkpt lat="47.406999918" lon="4.999429282">
                <ele>302.889252</ele>
                <time>2017-03-12T08:29:17Z</time>
            </trkpt>
            <trkpt lat="47.407049060" lon="4.999738316">
                <ele>302.532806</ele>
                <time>2017-03-12T08:29:37Z</time>
            </trkpt>
            <trkpt lat="47.407098964" lon="5.000014245">
                <ele>302.223999</ele>
                <time>2017-03-12T08:29:50Z</time>
            </trkpt>
            <trkpt lat="47.407143247" lon="5.000289893">
                <ele>301.909637</ele>
                <time>2017-03-12T08:30:04Z</time>
            </trkpt>
            <trkpt lat="47.407193149" lon="5.000565823">
                <ele>301.469116</ele>
            </trkpt>
            <trkpt lat="47.407231623" lon="5.000849469">
                <ele>301.018250</ele>
                <time>2017-03-12T08:30:21Z</time>
            </trkpt>
            <trkpt lat="47.407252668" lon="5.001157102">
                <ele>300.619995</ele>
                <time>2017-03-12T08:30:37Z</time>
            </trkpt>
            <trkpt lat="47.407234953" lon="5.001437942">
                <ele>300.602448</ele>
                <time>2017-03-12T08:30:57Z</time>
            </trkpt>
            <trkpt lat="47.407194191" lon="5.001742488">
                <ele>300.899994</ele>
                <time>2017-03-12T08:31:13Z</time>
            </trkpt>
            <trkpt lat="47.407137334" lon="5.002013086">
                <ele>301.475006</ele>
                <time>2017-03-12T08:31:16Z</time>
            </trkpt>
            <trkpt lat="47.407107046" lon="5.002351298">
                <ele>301.606873</ele>
                <time>2017-03-12T08:31:32Z</time>
            </trkpt>
            <trkpt lat="47.407077900" lon="5.002639852">
                <ele>301.415314</ele>
                <time>2017-03-12T08:31:48Z</time>
            </trkpt>
            <trkpt lat="47.407100465" lon="5.002881273">
                <ele>300.789764</ele>
                <time>2017-03-12T08:32:05Z</time>
            </trkpt>
            <trkpt lat="47.407191647" lon="5.003110981">
                <ele>299.481049</ele>
                <time>2017-03-12T08:32:22Z</time>
            </trkpt>
            <trkpt lat="47.407366821" lon="5.003284029">
                <ele>297.951996</ele>
            </trkpt>
            <trkpt lat="47.407532330" lon="5.003424879">
                <ele>297.000000</ele>
            </trkpt>
            <trkpt lat="47.407681365" lon="5.003548334">
                <ele>297.000000</ele>
                <time>2017-03-12T08:32:43Z</time>
            </trkpt>
            <trkpt lat="47.407847447" lon="5.003664356">
                <ele>297.000000</ele>
                <time>2017-03-12T08:33:01Z</time>
            </trkpt>
            <trkpt lat="47.408001909" lon="5.003796370">
                <ele>297.119995</ele>
                <time>2017-03-12T08:33:16Z</time>
            </trkpt>
            <trkpt lat="47.408164199" lon="5.003914638">
                <ele>297.484985</ele>
                <time>2017-03-12T08:33:37Z</time>
            </trkpt>
            <trkpt lat="47.408350355" lon="5.004054090">
                <ele>297.904999</ele>
                <time>2017-03-12T08:33:57Z</time>
            </trkpt>
            <trkpt lat="47.408481961" lon="5.004201536">
                <ele>298.614990</ele>
                <time>2017-03-12T08:34:13Z</time>
            </trkpt>
            <trkpt lat="47.408441574" lon="5.004489534">
                <ele>298.357513</ele>
            </trkpt>
            <trkpt lat="47.408412995" lon="5.004753263">
                <ele>298.187988</ele>
                <time>2017-03-12T08:34:28Z</time>
            </trkpt>
        </trkseg>
    </trk>
</gpx>
